GFSMW_500_spd_000.txt.gz
Wind_Speed
27 30 29 30 33 36 37 43 44 42 40 49 51 50 51 51 55 57 56 56 56 54 57 59 60 62 65 67 67 66 66 67 68 69 69 69 69 71 69 70 74 75 72
28 29 31 32 36 36 42 43 43 45 51 51 53 52 52 55 56 57 57 56 53 53 55 60 65 68 65 68 72 76 76 74 73 74 74 74 73 72 72 73 74 74 78
30 32 34 35 38 41 43 46 49 49 49 52 54 55 56 55 55 55 57 62 59 58 59 64 70 76 73 73 78 77 77 78 77 76 77 78 77 75 72 70 69 70 67
36 37 35 37 40 42 45 47 48 48 50 52 55 55 55 58 59 61 62 63 64 65 68 73 77 76 76 76 77 79 79 80 78 78 78 78 78 77 80 74 70 68 70
39 39 39 39 40 42 43 45 46 49 50 50 52 54 59 59 60 62 64 66 68 71 74 75 77 78 78 78 78 79 78 79 81 81 80 80 82 83 85 83 80 76 74
38 39 40 42 39 38 41 41 46 48 49 51 52 54 57 61 64 67 70 72 76 76 76 77 78 80 81 80 83 82 82 83 85 86 86 86 86 86 89 91 87 85 81
37 37 39 40 38 36 38 41 44 48 51 56 58 62 65 67 70 74 75 76 78 77 76 77 78 79 80 84 87 88 94 97 94 91 90 90 91 91 91 93 92 87 84
34 36 39 40 40 39 41 43 44 50 55 59 64 68 71 74 77 78 78 78 79 78 80 80 82 82 84 88 94 94 98 96 92 88 87 84 79 75 71 70 71 66 68
36 34 36 39 37 39 44 47 50 53 57 62 67 71 74 78 80 82 84 83 80 80 83 84 83 86 90 91 92 93 91 85 76 69 64 59 55 53 52 50 46 44 40
34 35 36 38 43 45 47 50 54 59 66 71 74 80 83 83 83 82 81 79 79 81 85 88 90 90 90 89 86 80 70 62 54 51 49 48 47 46 43 42 46 45 44
35 37 39 40 43 46 51 56 61 66 71 76 80 81 83 83 83 83 82 80 80 81 83 85 87 87 83 76 67 60 53 48 46 48 51 50 50 49 49 48 45 41 44
34 36 39 44 49 53 59 65 69 74 77 80 83 83 83 82 81 81 80 80 80 81 82 83 80 74 66 59 54 49 49 49 49 49 49 49 48 48 48 49 49 47 44
37 41 44 48 53 59 65 70 76 78 81 82 81 79 81 80 79 80 80 79 80 81 82 77 69 60 55 50 50 50 53 53 53 54 54 53 53 52 53 52 50 48 45
43 46 50 55 61 65 71 76 79 83 82 82 84 78 81 80 80 78 80 80 80 78 73 65 58 51 48 50 51 53 56 57 56 55 54 54 55 55 56 55 54 51 46
49 52 57 63 68 72 77 80 82 81 84 82 84 84 86 85 81 80 81 80 76 70 62 56 49 49 51 52 55 57 57 55 52 50 50 50 50 51 53 55 54 52 49
54 59 64 70 73 76 80 83 85 85 86 85 86 86 89 92 90 87 81 75 71 61 51 45 46 49 52 55 57 55 52 50 49 47 44 44 44 45 48 50 50 50 49
61 65 69 74 78 81 83 85 86 83 84 86 88 88 81 74 72 72 74 72 59 46 42 44 47 49 54 57 56 51 51 49 48 46 44 41 40 39 41 43 42 43 45
66 69 73 77 81 83 85 84 82 84 86 87 85 82 77 72 67 69 68 55 43 41 42 46 48 50 54 56 55 52 51 48 44 42 40 39 38 38 37 35 34 36 39
68 71 75 78 82 85 87 85 85 86 88 88 81 77 69 59 61 69 50 39 41 41 43 45 48 52 53 52 51 49 46 41 38 38 39 39 37 34 31 29 27 29 33
68 75 80 85 86 84 84 85 86 88 87 82 75 69 64 50 56 56 37 39 37 41 42 43 47 50 51 50 47 43 40 38 36 35 33 31 27 23 24 23 22 23 27
76 80 83 85 83 84 85 87 88 85 80 74 69 61 45 44 46 35 33 32 37 40 40 42 45 47 47 45 40 37 32 30 30 27 22 19 17 16 16 15 15 17 21
78 81 83 83 83 84 88 87 83 76 70 68 61 50 38 35 30 27 27 32 38 39 40 43 45 45 44 38 35 31 29 28 28 26 22 18 12 8 4 4 9 14 16
80 81 82 84 85 87 88 83 74 69 64 58 46 36 28 23 26 26 27 34 38 40 41 46 43 41 39 34 30 28 28 28 26 24 22 18 15 9 4 6 9 11 12
80 81 83 84 84 83 79 70 67 65 56 45 34 27 26 29 28 26 29 35 40 40 42 46 41 38 34 30 27 25 27 26 25 23 20 15 12 10 8 7 9 10 10
81 83 84 84 83 78 70 66 64 54 47 35 29 27 30 33 29 28 30 35 40 40 42 45 40 36 32 27 22 22 24 20 20 19 17 17 16 15 11 8 9 10 12
81 82 82 82 78 70 67 64 54 46 38 31 27 29 32 32 29 28 32 36 39 39 42 42 37 35 30 26 20 19 21 17 16 15 14 14 13 13 12 11 13 16 16

GFSMW_500_spd_003.txt.gz
Wind_Speed
28 31 31 33 33 32 39 44 43 44 46 49 42 41 53 52 55 55 53 53 55 57 56 56 58 60 60 61 64 66 69 72 74 73 72 70 69 69 70 71 72 72 73
27 29 31 34 34 37 42 46 45 46 47 42 46 49 48 54 56 54 54 56 57 60 62 65 65 65 66 67 70 72 74 75 77 77 77 77 74 73 72 74 75 76 78
26 29 31 34 38 41 43 45 47 48 48 47 47 50 53 51 51 54 56 58 61 63 66 68 71 74 75 75 75 76 77 77 75 77 78 80 81 81 78 76 75 74 74
28 30 33 38 41 42 41 42 44 46 46 48 46 50 51 53 54 58 60 63 64 67 71 74 77 79 80 80 81 79 78 77 77 77 79 80 83 85 86 81 78 76 77
37 38 34 34 35 36 37 39 39 39 41 44 47 50 52 56 58 61 65 68 71 75 78 79 80 81 82 81 81 80 80 80 79 79 81 82 85 88 91 86 79 80 82
42 41 40 36 35 34 36 39 40 42 43 45 47 50 53 58 62 65 68 72 76 79 78 81 82 82 81 81 81 81 80 81 83 86 88 88 89 88 95 100 96 92 86
43 43 45 42 35 33 35 36 39 42 47 50 54 57 62 67 70 74 77 79 81 82 83 83 83 83 83 82 82 83 85 87 88 90 90 91 91 92 92 94 93 91 87
35 44 42 42 38 35 34 37 39 41 45 51 56 61 66 71 72 76 79 80 80 80 80 81 81 83 83 83 83 85 87 89 90 89 87 84 77 71 67 64 62 61 61
33 34 33 34 34 34 36 40 44 49 55 61 66 72 76 79 81 82 82 81 80 80 81 82 81 81 83 84 84 85 85 83 77 70 64 59 55 52 50 48 48 49 45
32 33 34 36 39 42 45 47 53 59 65 69 73 76 79 82 84 81 80 82 83 82 83 83 82 82 83 83 82 78 71 64 57 52 47 44 45 44 44 47 49 49 49
31 31 33 37 41 45 49 55 61 66 70 73 77 80 82 84 84 80 81 82 82 81 81 78 78 78 75 71 67 62 55 49 47 48 49 47 48 46 46 47 47 48 47
31 33 37 40 45 49 54 59 64 69 72 75 78 80 82 81 82 81 81 82 81 77 73 74 70 68 65 61 56 48 44 46 49 51 52 53 54 53 52 51 51 52 51
36 39 42 44 47 53 57 63 67 71 76 80 83 85 84 83 86 87 91 90 84 77 77 73 72 65 57 49 41 41 45 49 52 55 55 53 50 49 50 53 54 55 55
41 43 46 50 56 61 66 68 72 77 81 85 87 85 85 86 90 90 89 81 62 70 69 70 62 50 41 38 41 45 48 52 55 53 50 47 45 45 45 47 51 53 55
46 48 53 58 63 65 69 73 76 81 84 85 87 86 87 89 87 84 79 55 63 67 70 71 48 40 38 42 44 47 51 53 51 47 46 45 44 44 45 45 43 45 49
49 53 58 62 65 70 73 77 81 84 85 87 87 88 89 86 79 73 50 57 71 61 58 62 48 42 42 44 47 51 52 49 47 46 45 46 45 45 44 43 42 40 38
53 57 61 65 69 73 78 83 85 87 87 87 87 89 89 83 72 67 51 59 66 54 60 48 46 45 43 47 51 51 47 46 44 45 44 42 41 41 40 38 38 36 34
59 62 65 70 74 79 82 85 85 85 87 87 89 89 85 73 67 59 48 51 50 51 43 42 44 43 46 50 51 47 43 42 41 41 40 38 37 38 37 34 33 32 31
62 66 69 73 76 78 82 84 86 87 88 89 89 81 72 66 59 50 39 41 42 32 34 40 40 42 48 48 44 40 38 35 37 35 34 33 30 26 27 27 25 24 26
62 66 71 75 79 82 84 85 87 87 88 89 83 72 66 57 47 36 34 32 26 28 35 37 38 43 45 44 38 35 32 31 34 34 34 31 27 22 19 17 16 18 22
67 72 76 79 82 84 85 87 88 88 89 84 72 66 55 45 34 26 23 25 23 30 35 38 39 46 44 42 35 30 29 31 32 32 31 29 24 19 16 12 11 13 17
71 75 78 81 82 84 85 87 88 89 82 74 65 54 45 34 27 28 29 23 26 31 37 40 41 47 43 40 34 28 28 31 30 31 30 25 20 15 11 8 3 5 9
73 77 79 79 81 84 86 87 88 82 74 66 57 46 38 30 27 29 29 25 28 32 37 39 41 45 40 38 33 27 26 28 28 29 26 21 18 16 13 8 4 6 10
76 77 77 79 82 85 85 87 85 74 67 57 48 40 32 27 30 31 28 26 28 33 38 38 41 43 38 36 30 25 22 24 23 23 21 21 22 21 15 10 7 9 12
73 75 77 80 82 83 84 84 79 68 56 50 40 33 28 27 30 30 27 26 28 33 37 36 41 43 36 34 28 20 18 19 17 17 18 20 22 20 17 11 8 8 9
72 74 77 80 81 82 81 79 71 59 49 40 33 29 26 27 28 28 27 28 30 33 35 35 41 42 34 33 28 23 16 16 13 13 14 16 18 17 14 12 13 14 14

GFSMW_500_spd_009.txt.gz
Wind_Speed
16 20 19 20 21 21 26 33 36 39 40 43 42 42 37 43 41 47 43 46 48 48 49 52 56 59 61 62 63 64 65 66 68 71 72 73 74 76 77 77 76 76 77
20 21 18 21 21 27 29 33 42 45 45 44 43 42 42 45 47 47 48 49 51 54 57 60 64 67 69 70 72 74 75 75 77 78 78 78 77 77 79 81 81 81 80
21 18 18 22 30 33 35 36 37 41 45 45 44 45 46 47 47 48 49 52 56 60 64 67 70 73 76 77 78 81 82 83 82 82 82 81 81 80 77 80 83 84 84
20 22 29 31 35 38 41 43 43 48 48 46 45 45 45 45 47 50 54 58 63 66 70 73 76 78 81 81 82 84 86 85 85 83 82 83 86 87 91 88 83 84 87
20 31 35 36 38 38 41 45 47 43 40 40 40 41 43 46 50 54 59 62 66 69 72 76 79 82 84 87 88 87 85 85 85 86 87 88 89 92 94 91 90 89 89
29 32 32 39 35 41 44 45 42 41 39 39 40 41 44 49 53 58 62 66 68 72 79 86 86 88 90 89 89 89 90 90 91 91 90 92 92 93 94 96 95 95 95
34 32 29 41 44 41 38 36 35 33 35 38 41 44 49 54 60 64 69 74 79 84 86 88 90 90 90 90 90 91 92 94 92 91 89 86 84 83 82 85 85 87 86
28 34 44 44 36 36 32 30 33 37 41 44 47 52 58 65 68 72 76 80 83 87 90 92 92 93 95 98 97 98 97 90 87 85 73 74 78 79 67 63 64 62 60
33 38 33 33 38 32 31 36 39 42 45 49 55 60 65 67 71 75 80 84 88 91 93 95 95 96 96 99 96 90 84 85 80 68 71 79 53 50 48 48 48 49 47
29 32 35 37 36 37 42 45 48 51 53 57 61 65 68 72 77 81 84 87 90 94 94 95 94 96 95 87 79 80 74 74 68 72 74 72 54 54 52 50 49 50 51
32 36 40 42 44 46 49 52 53 55 58 62 66 68 72 77 81 85 88 91 93 94 94 95 96 91 83 76 72 74 71 62 68 74 59 50 53 54 54 55 56 56 57
34 38 42 45 47 50 50 53 55 59 63 66 68 71 76 80 84 87 90 91 93 94 96 98 88 77 73 67 63 58 55 60 71 51 51 52 54 56 58 57 56 56 56
35 39 43 46 47 48 51 54 59 62 65 67 70 75 79 81 85 89 91 93 95 96 98 90 77 67 61 57 55 61 64 54 50 51 52 55 57 54 50 49 49 50 51
36 39 42 45 48 50 53 58 62 65 66 70 74 77 81 84 89 91 92 96 98 101 94 75 61 56 51 46 49 42 42 48 49 53 54 53 49 45 41 43 44 44 44
39 42 44 47 49 53 57 60 63 64 69 74 77 81 85 88 89 91 94 96 98 91 73 56 50 45 38 36 37 43 46 47 53 51 52 47 43 45 46 46 47 47 47
44 46 48 50 53 55 58 61 63 68 72 75 80 85 87 88 90 94 95 97 89 72 54 44 39 31 28 33 40 44 46 50 52 50 48 43 44 46 48 49 48 47 45
47 49 51 53 54 56 59 62 67 71 74 79 84 85 85 89 94 94 94 86 70 53 42 36 32 33 33 36 42 47 46 52 50 48 44 41 44 46 47 46 43 42 40
50 52 53 55 55 56 61 65 69 72 78 82 83 83 88 92 92 92 86 72 56 44 37 35 35 35 36 39 43 47 47 53 47 44 39 40 41 43 44 42 39 36 36
52 56 56 53 55 59 64 68 71 76 81 81 81 87 92 92 90 85 75 59 48 38 34 35 37 36 37 40 44 46 46 48 42 39 37 38 38 41 43 38 35 32 30
56 57 54 55 59 63 68 72 76 78 79 80 86 89 92 89 86 76 62 50 42 34 33 36 37 36 37 40 44 44 47 42 39 34 34 34 36 39 40 37 32 28 23
58 56 56 59 63 68 72 75 77 78 79 84 88 91 89 85 76 66 54 43 35 32 34 36 36 35 36 40 43 42 47 39 35 29 30 30 34 37 37 36 32 27 20
58 58 60 64 69 71 74 77 78 78 82 86 89 87 83 76 68 58 45 37 32 31 32 35 35 36 37 40 39 42 45 37 33 27 26 26 30 34 34 33 31 26 19
60 62 65 69 71 75 78 77 77 80 84 89 86 82 77 67 60 50 38 34 31 31 33 35 37 36 37 40 38 42 43 38 33 25 24 23 26 30 29 28 27 24 18
62 65 67 70 74 77 77 77 79 84 88 85 79 75 67 60 52 41 34 32 32 32 33 35 36 35 37 37 38 40 41 39 31 26 22 22 22 26 26 23 23 21 17
65 67 70 73 76 75 75 78 83 87 84 78 74 66 60 52 43 35 32 31 31 31 31 33 33 34 35 35 37 39 40 38 29 26 21 21 19 21 23 20 18 18 17
68 71 74 77 75 73 76 83 87 84 79 74 66 58 52 43 36 31 30 29 28 29 30 31 31 33 34 36 38 39 38 36 28 25 21 19 18 17 18 19 14 13 13

GFSMW_500_spd_012.txt.gz
Wind_Speed
12 14 18 21 21 21 23 27 28 29 37 42 49 49 46 41 44 45 48 51 50 47 48 50 55 58 61 62 64 67 70 71 72 74 75 76 77 77 78 78 78 78 79
15 18 20 20 21 26 30 29 35 41 44 47 49 49 49 48 48 46 45 45 46 47 51 56 61 64 66 68 71 75 78 80 81 82 83 83 81 80 79 79 79 79 80
17 19 18 20 24 30 36 36 39 41 42 47 48 43 41 42 42 43 44 45 48 53 59 64 68 70 71 73 77 80 81 84 86 87 89 90 90 91 89 88 87 86 84
21 27 21 25 30 32 34 37 38 44 46 46 42 41 41 42 42 44 46 50 55 60 63 65 67 71 76 79 83 84 86 91 92 94 94 94 96 95 93 91 90 89 90
25 26 29 32 35 34 37 34 49 48 46 44 44 42 41 43 47 50 53 56 59 63 65 69 74 79 84 86 88 89 93 96 96 93 93 93 93 94 95 96 93 94 93
27 27 31 36 41 37 44 48 41 42 43 41 40 42 45 47 49 53 57 62 65 68 73 78 83 88 90 91 93 96 96 96 95 95 95 92 89 86 85 84 85 81 74
29 25 27 37 41 41 46 41 41 42 40 41 45 47 50 53 56 60 64 67 69 75 80 83 86 89 93 95 96 95 101 105 99 93 88 86 82 76 75 76 67 68 67
23 23 30 34 36 40 41 42 42 41 44 49 52 53 53 55 59 63 66 69 74 79 82 86 90 95 96 98 99 99 99 92 88 81 78 74 75 76 74 67 72 60 49
20 24 28 33 37 40 40 43 43 43 46 49 49 51 55 59 62 64 68 72 77 81 86 90 95 99 101 100 101 102 95 87 74 70 68 70 68 61 63 59 53 54 48
24 27 30 32 34 37 40 42 46 50 52 53 54 57 60 63 64 69 73 77 83 87 92 95 99 100 101 102 100 90 73 70 66 64 59 56 59 53 52 54 54 56 56
26 29 32 34 36 39 43 46 49 53 56 57 60 62 64 66 69 74 77 82 88 91 93 95 97 99 100 95 82 68 60 57 52 47 50 48 48 51 51 55 55 54 54
32 35 38 40 42 45 48 50 53 55 58 61 63 65 67 69 73 76 81 86 88 91 95 97 98 98 92 77 62 54 45 35 36 40 46 47 48 53 51 52 51 47 47
37 39 41 43 44 46 49 52 54 57 63 63 64 65 68 72 75 79 84 86 90 93 98 100 97 89 74 56 47 36 30 34 40 44 46 47 52 48 48 44 42 43 46
39 42 44 45 47 49 51 55 59 60 61 62 64 67 72 75 78 83 85 88 91 97 99 94 86 71 54 41 33 34 35 38 44 49 49 53 50 49 43 41 44 47 49
42 44 46 48 50 51 54 59 59 59 59 62 66 71 74 79 81 83 87 90 95 96 92 85 70 55 43 36 35 37 39 41 46 52 51 53 50 46 41 43 45 45 47
45 47 50 52 51 54 57 58 58 58 60 64 69 74 78 80 82 86 88 95 97 92 85 71 56 44 37 34 36 39 40 44 48 49 53 49 46 40 41 42 46 48 48
47 50 54 55 55 56 58 58 57 60 63 69 73 76 79 81 85 89 95 97 90 83 72 58 46 38 34 37 38 39 41 44 49 47 52 46 40 37 38 42 46 47 45
50 53 55 55 54 57 58 57 60 64 69 73 75 79 81 84 87 93 94 90 83 72 61 47 38 34 34 38 37 38 40 45 47 48 48 44 35 35 37 43 45 45 41
52 53 54 53 55 58 58 59 64 68 72 75 80 82 83 85 92 92 88 83 72 62 50 39 34 34 35 36 35 37 40 44 44 47 43 40 33 34 37 43 42 41 37
53 53 54 54 57 59 60 63 67 70 74 79 80 81 84 91 92 87 83 72 63 53 41 35 33 33 33 34 36 38 40 39 42 45 39 36 31 31 35 41 40 39 34
55 55 55 57 59 61 63 66 69 74 78 79 80 83 91 93 87 81 72 63 54 44 36 34 34 34 35 35 36 37 39 38 42 42 34 32 28 28 34 38 37 37 32
56 56 58 59 61 64 66 69 73 77 79 78 81 90 92 88 80 71 62 53 46 37 34 34 34 33 33 33 35 36 37 39 41 39 32 29 25 25 29 34 33 34 31
59 59 59 61 65 68 70 72 76 79 77 80 89 90 88 80 70 62 53 46 39 34 33 33 32 30 31 33 34 35 38 40 40 38 31 27 22 23 26 30 29 29 27
60 59 60 65 67 71 73 75 78 75 80 87 89 88 81 69 62 54 46 40 36 33 32 30 29 30 31 32 33 36 37 39 38 37 30 26 21 20 22 25 25 25 24
59 60 64 66 70 73 75 78 73 79 85 86 85 79 68 62 56 46 39 36 32 29 29 30 30 30 30 31 34 36 36 36 36 35 29 24 23 19 19 19 21 20 20
59 62 66 68 72 74 77 73 79 83 84 82 76 67 62 59 50 40 35 32 32 32 30 30 28 28 30 33 34 34 35 35 34 33 27 22 23 19 17 16 18 17 16

GFSMW_500_spd_018.txt.gz
Wind_Speed
15 14 14 14 17 19 21 22 22 23 30 32 36 38 41 43 47 47 42 42 40 41 42 45 47 50 53 55 57 59 62 63 63 63 65 67 68 70 72 74 78 83 87
15 15 16 19 20 22 21 20 23 28 33 36 40 42 45 48 46 45 44 43 43 46 49 52 55 56 58 60 61 62 61 63 67 67 70 72 75 80 84 87 89 92 93
15 16 16 18 18 23 23 22 28 33 35 39 40 43 49 44 44 47 48 48 49 51 53 55 56 56 58 59 61 63 66 69 72 74 78 81 85 89 92 96 98 100 102
15 14 16 18 20 22 24 28 30 30 33 37 38 40 42 45 48 50 49 51 53 54 55 56 57 58 60 62 65 68 72 76 81 84 87 90 93 96 97 100 106 108 105
14 17 17 21 23 22 22 22 22 25 29 32 36 39 42 45 48 51 53 55 56 56 58 58 59 61 63 66 71 75 78 82 84 88 91 95 99 102 105 108 102 92 85
16 17 18 18 16 17 20 22 25 27 31 34 38 41 44 47 50 52 55 57 58 58 60 60 62 64 68 72 76 81 85 88 91 93 97 101 104 104 95 87 78 69 60
15 14 14 14 15 19 21 24 26 30 35 39 43 46 48 50 52 54 57 58 59 61 61 62 65 70 75 79 83 86 89 90 94 99 104 105 98 86 75 66 59 54 43
11 12 14 15 18 21 23 26 29 33 37 41 45 48 49 52 53 56 58 61 63 62 62 64 69 75 78 82 86 88 90 95 100 103 99 89 76 65 56 48 44 43 42
12 13 16 20 23 26 28 30 33 37 39 42 44 41 55 55 55 58 60 66 63 62 63 68 73 77 81 84 86 91 96 99 100 93 79 68 56 45 41 43 45 47 45
15 17 21 24 27 30 32 34 37 40 43 45 40 50 55 56 57 62 64 63 62 64 68 72 76 80 83 87 92 97 101 98 82 71 62 50 41 39 40 42 44 46 46
21 23 26 29 32 34 36 38 41 45 47 49 51 55 58 58 59 62 63 62 64 68 72 76 80 82 85 91 97 99 92 77 67 58 48 42 40 40 42 44 47 46 49
27 30 33 35 38 40 41 42 45 48 52 53 55 58 59 59 61 63 62 65 69 73 76 79 81 84 92 96 96 85 72 64 54 46 42 40 41 41 44 46 48 47 51
32 36 38 41 44 45 46 48 49 52 54 55 59 61 60 60 63 63 65 69 73 76 78 81 83 91 96 90 81 70 62 52 44 40 38 40 40 40 43 47 47 49 47
38 41 43 46 48 50 51 53 54 53 55 58 61 62 61 62 63 64 68 72 75 78 81 84 90 97 88 77 69 62 52 43 39 36 38 39 38 41 44 45 46 47 44
43 45 47 49 52 53 54 55 56 56 58 59 61 62 62 62 64 67 71 75 78 82 84 88 97 89 78 69 63 54 44 38 36 36 38 38 39 42 44 46 46 44 39
47 49 50 53 54 55 56 57 56 57 58 62 62 62 62 62 67 69 75 78 81 87 87 94 90 80 71 63 54 44 39 36 35 36 37 38 40 41 42 43 44 40 35
51 51 52 54 55 57 56 55 56 57 62 62 62 60 61 65 68 72 77 80 85 89 91 91 83 73 65 56 45 39 36 35 36 37 36 38 39 41 42 41 40 35 34
52 52 53 55 56 56 54 55 57 60 60 61 60 61 65 67 68 73 76 82 88 90 95 88 76 68 57 48 40 36 35 33 33 34 36 37 39 39 40 41 34 31 33
52 52 54 55 54 54 54 57 59 61 62 61 62 64 68 70 71 77 81 86 90 94 92 80 70 59 49 41 37 35 32 31 32 33 34 37 38 38 38 35 30 28 31
52 52 51 51 53 54 56 56 56 59 62 63 64 68 72 74 75 76 83 87 93 92 80 72 63 50 42 37 34 31 30 30 30 33 35 34 37 36 36 30 26 25 28
48 48 50 52 55 57 58 59 56 62 64 64 66 70 73 73 73 82 85 94 95 85 73 65 53 43 37 33 32 31 30 29 29 31 32 35 35 34 33 28 25 23 26
47 50 54 56 56 58 59 57 61 67 70 68 71 71 71 72 79 85 89 95 88 75 66 57 45 37 34 34 32 31 28 28 29 29 31 33 31 30 28 26 22 21 24
53 54 54 55 53 64 62 61 64 71 73 73 74 67 70 76 82 85 86 83 75 66 59 48 39 35 34 32 29 27 27 28 28 29 30 30 28 27 25 23 22 20 21
55 53 55 58 55 66 65 59 65 78 82 79 72 69 75 79 83 86 81 73 66 59 51 42 36 34 32 28 25 25 26 26 27 28 29 27 26 24 21 20 20 18 19
53 55 57 60 62 63 66 69 75 85 85 74 73 73 76 79 81 82 74 65 59 52 44 37 33 32 29 23 23 24 26 26 26 27 28 26 24 23 21 20 20 19 17
55 58 61 62 62 66 76 72 79 75 69 71 73 75 77 79 77 71 64 58 53 45 38 33 30 29 24 22 23 26 25 25 25 25 26 25 24 22 22 21 20 20 17

GFSMW_500_spd_021.txt.gz
Wind_Speed
11 12 13 14 15 19 22 24 24 25 22 27 32 36 38 40 40 43 45 45 46 46 47 50 51 52 52 55 56 57 57 58 59 60 59 59 62 65 69 73 74 75 78
15 14 14 16 18 22 26 26 27 26 28 30 35 34 35 36 38 40 43 44 46 48 50 50 53 55 53 54 57 59 58 58 58 61 63 64 66 70 74 77 81 84 86
14 16 18 19 19 22 26 25 26 27 30 31 29 29 31 35 38 40 43 45 47 50 51 53 54 55 57 59 59 59 57 60 62 67 70 74 76 79 80 83 85 88 91
18 20 22 21 23 26 27 26 25 24 22 25 27 30 33 38 40 44 47 50 50 51 53 57 57 59 60 59 58 60 61 66 70 73 77 81 82 84 86 90 93 96 100
22 23 23 23 26 27 20 18 19 20 23 26 29 32 36 40 43 46 50 53 55 56 58 60 61 62 63 61 62 63 68 72 76 81 83 85 87 91 95 97 100 103 99
25 26 25 26 23 17 17 18 20 22 25 28 32 35 39 43 46 49 50 53 58 60 60 61 65 66 64 64 67 71 75 78 82 83 86 91 94 98 101 101 94 84 71
26 26 24 19 16 15 19 21 23 26 30 33 36 39 43 46 50 45 55 58 64 62 61 65 66 66 67 70 72 76 80 82 84 86 93 97 99 97 91 81 73 63 49
20 18 17 16 17 20 23 25 28 32 35 38 41 45 47 49 49 50 58 62 64 63 63 65 66 66 69 73 76 80 84 87 90 94 99 95 89 81 74 66 58 48 42
15 16 18 20 23 27 29 32 35 37 40 43 46 48 50 52 53 55 59 62 63 63 64 66 67 68 71 75 80 84 85 92 97 104 93 83 76 70 61 54 49 47 44
20 21 23 26 30 33 35 38 41 43 46 48 50 52 54 55 56 59 61 63 63 63 65 66 68 71 76 79 83 84 89 97 103 90 80 72 65 57 50 47 46 47 47
23 26 29 32 36 38 41 44 46 48 51 53 57 58 58 58 59 60 63 64 63 64 65 67 70 74 78 82 84 90 92 103 90 77 71 62 53 47 44 44 45 45 47
29 31 33 37 41 43 45 48 50 52 53 56 58 58 59 59 60 63 63 64 64 64 66 68 72 76 80 87 89 95 99 93 76 69 60 51 45 42 42 44 43 44 47
34 37 39 42 45 47 49 51 52 54 56 58 59 59 58 58 61 64 64 64 64 66 68 70 74 78 82 89 95 102 95 77 68 59 49 43 40 40 42 42 44 46 48
40 43 45 46 48 51 53 54 54 56 58 59 59 58 58 60 62 64 64 65 66 70 72 74 75 78 86 93 98 102 83 69 60 49 43 40 39 39 40 43 45 46 45
45 47 49 51 52 54 55 56 56 58 58 58 57 57 58 59 62 64 64 66 69 73 75 78 76 84 91 93 98 89 75 63 51 44 41 40 39 39 41 44 44 46 45
50 51 52 53 54 55 55 55 56 57 55 56 56 58 58 60 64 65 66 68 72 75 79 78 82 89 96 93 87 79 66 53 45 41 39 39 39 39 40 40 42 43 43
53 53 53 53 53 53 54 55 54 53 54 56 58 59 61 62 66 68 69 71 75 76 78 79 84 92 96 84 80 69 57 47 42 40 37 36 38 39 41 41 42 41 41
52 51 51 51 52 52 52 51 52 54 57 58 59 57 57 64 70 74 75 76 78 76 77 82 87 91 92 79 68 59 48 43 39 36 35 36 38 39 40 39 40 39 36
51 50 50 50 49 48 50 53 56 58 58 56 59 60 63 70 75 76 78 80 75 74 79 86 87 86 84 68 59 49 42 39 37 36 36 35 39 39 39 39 36 35 32
49 48 47 46 46 50 53 56 55 56 61 59 65 69 70 74 83 80 79 78 80 78 82 78 82 75 70 60 51 44 41 39 36 36 35 34 35 37 38 36 33 30 29
45 43 44 47 51 54 55 53 56 59 61 68 72 76 81 83 85 81 81 77 79 80 81 78 68 64 60 55 44 41 39 37 34 33 34 34 34 35 36 33 30 27 26
43 45 48 51 53 53 53 57 60 63 65 63 78 82 87 80 80 78 75 79 80 83 77 69 64 60 52 47 41 39 37 34 31 32 32 32 33 33 32 30 27 26 25
48 50 52 51 52 54 56 54 65 71 66 72 77 82 81 78 67 71 72 75 73 71 70 65 59 50 46 41 37 36 33 30 30 30 30 30 31 30 28 26 26 25 24
50 50 52 54 57 58 60 63 68 69 81 80 79 82 72 64 72 72 74 73 68 67 62 57 51 46 41 37 35 32 29 28 29 29 29 29 29 28 26 25 24 24 22
51 53 56 58 60 63 66 64 68 69 69 79 81 78 81 74 75 74 68 69 61 57 55 51 46 41 36 33 33 30 28 29 29 28 28 28 28 28 26 24 23 22 22
56 57 59 64 65 64 62 66 72 75 79 80 82 79 79 78 71 69 62 61 53 52 50 49 43 37 34 31 29 29 29 30 29 29 28 27 26 27 26 25 23 23 21

GFSMW_500_spd_024.txt.gz
Wind_Speed
2 6 8 11 15 16 16 22 21 21 22 25 26 27 30 29 26 29 33 37 41 44 45 46 48 50 51 52 53 54 56 55 54 52 51 52 52 55 59 61 65 69 72
6 8 11 13 17 21 20 22 24 23 26 25 26 29 25 26 29 33 35 39 42 44 45 46 48 52 54 55 56 58 59 57 56 55 56 57 60 62 65 69 73 77 79
9 12 13 17 21 23 24 25 27 28 26 22 21 23 24 28 30 34 39 42 45 48 48 49 51 57 59 59 59 60 60 58 57 59 62 64 68 71 75 78 82 85 88
16 16 20 23 23 25 27 28 26 20 20 21 24 26 29 33 36 40 43 46 48 51 50 51 57 61 60 60 60 62 60 60 62 65 68 71 76 80 82 86 90 92 94
23 22 24 26 26 29 29 21 18 18 21 24 26 31 35 39 42 45 48 50 54 55 54 58 61 64 64 64 62 62 61 63 67 69 72 75 78 83 90 95 99 99 93
29 30 30 30 29 27 21 18 18 21 24 28 32 36 40 44 46 49 50 52 54 55 55 58 61 64 65 63 63 62 64 67 69 72 75 82 90 97 103 101 96 90 77
31 33 31 28 24 19 18 20 23 26 30 34 37 41 44 47 50 52 54 56 56 56 56 59 63 64 64 63 62 64 68 70 74 76 82 90 99 102 104 93 81 74 67
26 24 19 17 18 20 22 26 30 33 36 40 43 46 49 51 53 56 58 59 60 59 61 63 64 64 63 62 64 67 70 72 76 83 90 98 102 104 90 80 73 65 56
14 16 18 19 21 24 28 33 36 38 42 45 48 51 53 55 57 58 59 59 58 57 61 64 65 63 63 64 66 69 73 77 80 89 97 101 104 92 78 70 63 56 49
17 21 23 24 27 30 34 38 42 44 46 49 52 54 56 57 59 60 60 57 58 60 63 65 64 63 64 67 70 72 78 84 88 91 96 101 93 76 66 58 53 47 45
23 24 27 30 33 35 38 42 46 48 48 51 54 56 58 59 60 60 59 57 58 61 63 64 64 66 67 70 72 76 80 85 87 94 95 88 73 63 56 50 45 44 44
29 31 32 34 38 42 44 45 48 50 51 54 56 57 59 60 60 59 57 57 60 62 62 65 67 69 71 74 78 81 82 85 90 92 90 77 64 55 49 45 43 42 43
35 39 40 40 41 47 48 50 51 53 53 55 56 58 59 58 59 59 58 61 61 60 65 69 71 73 74 80 84 87 84 89 91 89 79 65 57 48 44 43 43 42 44
38 42 48 50 49 51 52 53 54 53 54 55 56 57 56 56 58 60 61 62 62 65 69 74 76 77 78 81 83 86 84 91 88 80 67 57 50 44 41 41 40 42 44
46 47 50 55 57 55 55 53 53 53 53 54 54 53 56 58 59 60 60 61 64 68 74 81 85 89 87 82 85 86 84 82 73 70 57 49 46 41 38 39 40 43 45
46 49 49 53 54 55 56 54 52 52 53 51 52 57 58 61 59 59 64 67 72 73 77 80 86 92 87 81 83 81 77 69 63 57 48 43 42 38 37 38 38 40 42
49 50 51 52 53 55 55 52 51 50 51 52 56 58 57 59 61 67 71 77 77 75 80 86 84 82 75 77 77 77 73 59 56 49 44 40 40 38 38 39 41 41 43
52 53 53 53 52 51 51 49 48 50 55 56 57 56 57 61 64 69 77 82 85 85 83 77 74 72 77 76 73 68 61 53 49 45 41 39 39 37 37 38 39 40 40
53 52 49 48 47 47 46 47 52 56 57 56 56 61 61 65 71 79 82 92 92 84 75 71 72 78 79 64 60 58 54 49 44 41 39 36 36 37 37 38 38 38 37
47 47 44 44 44 46 49 52 55 55 55 57 61 62 65 77 80 84 86 91 81 68 70 71 74 75 73 60 56 55 50 46 41 39 36 33 34 36 36 37 37 34 32
48 45 46 47 48 50 51 51 54 56 58 58 63 66 68 71 78 87 79 76 75 71 75 81 68 59 57 53 52 50 48 40 37 35 32 32 34 34 34 35 35 32 29
49 47 47 48 48 49 52 54 57 57 61 64 66 65 73 76 84 85 81 76 73 75 79 69 57 53 53 51 48 47 42 36 34 30 30 32 34 33 33 34 34 32 29
46 48 48 48 52 53 55 58 61 64 68 68 70 76 78 81 83 85 85 80 80 72 61 61 54 51 51 48 43 41 37 33 30 27 30 33 32 32 32 32 31 30 29
46 46 49 52 55 57 60 64 66 68 67 65 60 72 71 72 78 82 81 71 65 64 60 55 51 49 48 47 42 38 32 29 27 28 30 31 31 30 29 30 30 28 27
47 51 54 57 60 63 66 66 65 60 62 63 66 68 70 74 78 76 63 60 62 61 55 50 48 47 47 45 42 37 32 26 25 27 28 30 30 28 28 27 28 27 27
53 56 60 63 66 67 65 63 60 59 62 63 66 69 72 74 67 60 57 61 63 59 54 51 48 46 44 41 38 35 32 28 27 27 28 28 27 26 26 26 26 27 27

GFSMW_500_spd_027.txt.gz
Wind_Speed
4 3 3 5 2 8 12 15 18 17 19 19 21 20 20 19 19 23 27 31 33 38 39 40 42 44 44 46 49 51 52 54 54 54 53 51 49 49 52 54 56 60 64
5 6 8 10 10 11 16 17 16 20 22 20 17 17 18 20 24 28 32 35 38 43 45 47 48 50 50 51 53 54 57 57 57 57 56 52 51 54 58 60 62 67 71
3 7 11 16 17 18 20 19 19 24 19 15 17 20 22 26 29 32 36 40 44 47 50 50 51 53 53 52 54 56 57 58 57 57 56 55 58 61 64 67 68 73 79
2 6 12 22 26 25 24 22 24 19 17 18 21 23 26 29 32 35 40 44 47 50 52 54 56 58 57 57 57 58 59 58 56 55 58 61 66 69 67 69 75 80 84
16 15 15 19 25 28 24 20 17 18 19 21 25 29 34 37 41 43 46 48 51 53 56 57 59 60 60 61 61 61 61 59 58 58 61 66 69 69 71 73 78 84 90
22 24 22 22 23 25 21 16 16 19 23 28 32 35 39 42 45 49 51 54 56 57 58 59 60 60 58 59 61 62 60 60 61 64 66 70 69 70 73 78 83 87 92
22 24 23 18 16 16 17 16 18 23 28 33 36 40 44 47 50 53 55 57 57 58 59 59 59 55 60 60 61 61 62 64 65 67 70 74 79 79 82 84 88 93 91
17 16 11 9 13 16 19 21 24 28 32 36 41 46 48 51 52 54 56 57 58 59 60 59 52 60 59 62 61 63 65 66 67 70 72 77 83 86 87 93 94 92 80
9 9 10 13 17 20 24 28 30 33 36 40 44 49 50 52 54 56 57 58 59 59 58 57 56 59 61 62 63 65 67 69 71 75 78 78 80 83 85 90 89 81 65
13 14 16 18 20 26 30 33 36 38 40 42 46 50 51 53 55 56 56 59 59 58 57 57 60 61 61 61 66 69 72 76 81 85 90 79 81 85 85 84 74 61 54
19 21 23 25 26 30 34 38 42 43 44 45 48 51 53 54 55 55 57 59 57 54 60 60 60 62 64 66 69 73 76 78 83 87 81 77 79 82 78 71 61 52 45
25 27 30 31 32 34 38 42 46 48 48 47 49 52 52 54 55 57 57 55 58 59 60 58 61 66 70 73 74 76 78 84 85 81 77 81 77 75 69 58 50 45 42
31 35 37 38 39 41 41 43 45 50 49 48 50 53 55 55 56 54 54 58 57 58 57 61 65 73 80 86 92 89 88 95 80 75 78 73 69 64 57 48 43 41 39
36 40 43 44 45 44 43 43 45 50 52 53 52 54 54 53 53 56 59 58 57 60 62 65 68 76 86 82 92 94 89 75 72 79 71 66 62 56 47 42 39 37 38
39 46 46 48 46 48 47 51 51 52 52 53 51 52 51 53 57 59 57 61 63 65 69 76 79 80 84 88 83 71 66 73 78 74 64 62 56 48 43 40 38 37 37
45 46 48 50 49 51 47 49 51 52 50 49 50 51 55 57 58 57 61 64 65 67 73 81 89 94 92 75 66 68 72 80 65 58 58 55 48 43 41 39 36 35 35
44 44 47 50 52 52 44 47 49 48 49 50 53 55 56 55 58 61 64 68 72 71 77 83 86 89 75 69 73 79 76 62 56 54 53 47 41 40 38 36 35 35 36
46 48 49 49 49 48 46 45 46 50 53 54 54 54 55 58 62 65 69 70 79 85 82 80 81 75 81 80 79 70 61 54 53 52 48 42 38 38 34 34 34 34 35
49 49 48 45 43 43 44 46 49 52 53 53 55 57 60 64 63 74 75 77 80 86 84 86 82 80 84 77 62 56 55 53 51 48 43 37 34 32 32 33 33 34 35
46 45 43 43 43 45 47 47 49 49 52 55 58 62 67 67 67 71 72 73 80 79 75 76 80 74 66 60 57 55 53 52 48 43 37 33 30 29 31 32 32 32 32
44 47 46 47 47 46 48 47 50 54 56 59 63 59 66 72 71 72 70 72 69 74 77 80 64 59 58 57 55 52 51 49 44 38 34 28 27 29 30 31 31 30 31
42 46 47 47 47 47 47 49 52 55 58 61 61 62 61 66 68 69 70 71 72 76 70 61 59 58 58 54 51 50 49 46 40 34 30 27 26 28 29 31 30 31 31
46 46 46 46 45 47 50 53 56 60 63 66 66 65 66 64 67 70 72 73 70 60 57 56 58 59 59 54 48 47 46 43 36 33 28 26 26 28 29 29 29 29 30
48 47 46 46 48 51 55 59 63 65 65 64 61 62 64 67 69 71 70 64 56 56 60 61 61 62 59 52 48 44 42 41 35 30 28 27 26 28 27 27 27 27 27
49 48 49 50 53 58 62 64 65 63 60 60 63 66 69 70 70 68 60 59 58 63 62 61 63 62 58 52 47 43 40 38 33 27 27 27 26 27 26 26 25 26 26
49 49 52 56 61 65 65 64 60 60 62 65 68 68 70 69 64 60 60 60 63 65 62 63 65 62 57 50 46 41 39 36 31 26 25 25 24 24 25 24 24 25 25

GFSMW_500_spd_030.txt.gz
Wind_Speed
3 7 6 3 7 11 13 15 12 10 11 16 14 12 10 9 12 15 20 24 28 31 34 37 40 43 45 47 48 50 50 49 50 49 51 52 52 50 48 48 50 53 57
4 5 4 5 6 7 12 13 13 12 14 12 9 10 12 14 17 22 26 30 33 36 39 43 46 48 50 51 53 54 54 55 53 53 53 54 50 49 50 52 55 58 62
6 4 3 6 6 9 11 13 10 13 13 11 12 14 16 20 24 28 32 35 38 41 45 47 50 52 53 55 56 55 55 54 53 54 56 52 50 52 54 55 58 58 60
5 6 7 8 11 12 12 12 11 10 11 12 16 18 22 26 29 33 37 40 43 45 47 50 52 55 56 57 56 55 54 55 55 56 52 53 55 57 58 59 60 61 67
3 5 3 8 14 14 13 14 9 9 11 15 20 25 28 32 35 38 41 44 47 49 50 53 56 56 57 57 57 56 55 57 59 56 56 58 60 61 62 61 65 69 78
5 7 8 9 11 13 10 10 12 14 17 21 26 30 34 37 40 43 46 48 51 54 56 56 56 58 58 57 56 54 57 60 58 59 61 64 66 66 68 69 70 72 79
9 10 7 6 8 9 12 12 14 18 23 27 31 35 39 43 47 49 52 54 56 57 58 57 58 59 59 57 58 60 60 59 62 65 68 70 72 75 75 79 83 83 73
6 3 2 4 9 13 14 17 19 24 29 32 36 40 45 48 51 53 55 56 59 57 59 60 61 61 60 59 62 61 60 63 65 67 72 75 79 81 85 88 84 73 72
5 4 7 10 15 17 19 20 24 28 34 39 42 46 49 51 52 53 55 57 56 58 59 60 59 61 61 62 62 62 64 69 72 76 83 81 81 85 89 79 74 79 79
10 9 11 14 17 22 25 27 31 35 39 42 45 48 49 51 52 54 56 55 57 58 58 57 58 62 61 60 62 65 67 70 74 75 80 84 89 88 79 73 76 74 71
14 13 15 18 21 26 32 35 38 41 43 42 42 45 48 49 52 55 56 55 55 55 55 59 61 60 63 66 67 71 75 80 82 84 88 88 75 67 72 79 73 70 69
16 18 20 22 27 31 34 38 41 40 40 41 42 45 49 51 54 57 53 52 51 55 59 60 60 62 65 69 73 74 77 80 87 87 85 71 68 77 79 71 69 69 69
21 24 27 30 30 31 33 33 33 38 41 45 46 46 52 54 56 52 50 52 56 58 59 60 63 66 72 74 79 83 81 80 86 82 76 73 80 82 68 64 66 66 59
23 28 32 32 34 37 38 43 42 43 37 41 46 51 54 54 51 52 54 56 58 59 63 67 69 73 77 82 85 89 93 84 70 71 76 80 73 64 64 64 62 55 51
27 30 32 37 39 42 46 47 47 40 43 44 51 52 53 51 52 54 55 57 60 64 67 71 76 80 80 81 86 85 76 73 75 79 75 68 62 63 62 58 53 49 46
33 34 38 43 46 48 48 45 46 43 43 49 51 50 51 53 53 54 59 60 64 69 71 74 77 80 80 85 81 77 73 79 73 66 62 60 60 59 56 51 46 44 39
40 41 42 43 45 46 47 47 47 49 49 49 49 50 52 52 55 58 62 67 69 67 70 74 75 77 80 80 76 76 73 69 64 58 58 58 56 54 49 43 40 37 36
40 42 43 45 45 45 46 48 48 42 45 47 49 51 53 57 59 62 66 66 65 74 73 79 85 80 75 78 75 67 62 56 56 56 55 54 53 49 42 38 34 35 35
42 43 44 46 46 47 48 46 43 44 47 49 50 51 56 63 67 68 71 70 71 77 80 83 84 77 78 70 60 57 56 58 58 56 52 51 49 43 37 32 32 33 34
44 45 46 48 48 46 46 46 47 48 48 47 52 54 52 64 60 70 71 70 70 75 76 79 79 73 59 58 59 58 59 61 58 53 50 48 43 37 32 30 31 31 32
44 45 47 48 48 49 49 49 49 48 48 54 56 59 63 65 65 60 67 66 70 72 73 74 66 60 57 61 59 59 61 60 55 51 48 45 39 34 31 30 30 30 31
44 46 48 49 49 50 51 50 48 48 51 55 60 62 64 63 59 60 63 67 70 73 73 68 62 60 60 61 58 60 61 59 52 48 46 42 36 31 30 29 30 30 29
46 47 49 51 52 51 50 49 50 52 56 61 63 64 61 59 61 65 69 72 73 73 69 63 61 61 63 59 59 62 63 59 49 46 43 39 36 30 29 29 29 28 28
48 51 52 52 53 52 50 50 54 58 62 65 64 60 60 63 68 72 74 73 73 69 65 63 63 64 61 61 64 65 63 56 46 43 41 37 35 30 29 28 27 27 27
51 53 54 53 52 51 52 55 59 64 66 65 63 62 65 68 72 74 74 74 72 68 66 65 65 63 61 64 67 68 61 52 44 39 38 36 32 29 28 26 24 25 26
54 54 52 51 51 54 57 61 65 67 65 64 64 66 70 73 75 75 74 72 69 67 66 67 65 63 65 68 69 65 56 47 42 37 37 34 30 28 26 24 23 25 26

GFSMW_500_spd_033.txt.gz
Wind_Speed
10 11 11 10 8 6 3 1 2 2 2 5 7 4 3 4 8 11 14 19 24 28 31 34 35 38 42 44 46 47 48 49 51 49 49 47 48 50 52 50 47 48 50
9 5 8 7 4 4 2 2 1 3 3 5 4 5 6 9 12 16 21 25 28 32 34 37 40 44 47 49 49 48 49 51 51 50 49 48 51 53 53 50 50 51 53
11 10 7 4 1 4 5 6 2 4 6 7 6 8 13 15 18 23 27 30 33 37 39 42 44 47 49 49 49 50 51 53 51 50 52 53 54 55 55 55 55 56 58
4 6 3 1 2 4 7 9 9 8 8 9 11 14 17 20 26 30 33 36 39 43 46 47 49 49 49 50 49 52 55 53 52 52 53 57 57 57 56 59 61 63 67
9 8 5 6 8 9 8 9 8 12 11 12 15 18 23 28 33 35 37 40 43 46 48 50 51 54 51 50 53 52 51 54 55 57 58 57 60 61 64 64 67 72 74
10 14 9 10 10 10 10 6 8 12 14 16 20 23 28 35 38 39 42 43 47 49 50 52 53 51 53 55 58 52 60 62 61 61 61 63 65 68 69 69 73 76 76
7 7 8 9 10 8 8 8 9 15 17 20 25 29 35 39 43 43 45 48 50 49 52 52 51 54 54 56 56 57 61 64 63 64 66 70 72 74 75 80 78 80 78
8 8 8 6 8 9 12 15 14 17 23 26 30 34 39 45 44 43 46 50 51 52 52 52 47 60 58 57 58 61 63 63 67 70 73 76 80 83 84 84 84 82 73
5 4 5 8 11 12 14 14 18 25 29 33 36 41 45 44 46 48 51 52 52 52 52 54 56 57 58 60 62 63 65 69 72 74 76 78 83 86 86 86 80 75 70
8 8 10 13 15 16 19 21 24 28 33 37 41 44 43 45 49 51 52 50 52 54 54 55 56 58 61 62 63 65 69 72 75 79 83 86 84 86 79 76 74 73 80
12 14 15 17 18 19 23 27 30 34 38 41 41 40 45 46 52 53 52 54 55 54 54 55 58 60 61 63 67 71 73 77 81 87 87 86 85 80 74 72 81 85 78
17 18 20 21 20 23 28 32 33 36 39 40 44 42 46 49 53 53 55 59 56 54 55 58 59 61 64 68 73 75 76 79 83 84 88 85 78 73 77 87 79 74 72
20 21 22 23 26 30 33 33 34 36 37 37 39 43 44 48 53 56 57 53 52 54 56 56 60 64 68 72 75 78 81 89 93 93 83 76 78 88 82 71 69 69 67
17 19 23 28 29 31 33 34 37 35 39 40 41 44 45 52 52 52 51 51 53 53 56 58 62 67 72 75 76 80 88 92 94 86 84 88 81 71 65 65 65 61 60
22 24 25 25 28 32 34 35 36 37 38 45 49 46 50 52 52 52 52 53 53 56 60 65 65 73 76 77 81 89 88 93 88 87 80 70 63 62 62 62 59 58 55
27 28 28 31 33 35 39 41 44 46 47 48 51 52 50 50 51 53 54 54 56 62 67 66 75 77 74 82 85 86 88 88 83 73 67 61 61 64 62 59 56 55 50
29 30 32 36 38 42 45 47 47 47 48 51 53 52 52 54 55 55 55 59 61 66 71 75 75 78 80 83 86 85 83 76 69 64 60 60 63 63 60 56 54 50 44
32 34 36 39 42 46 47 46 46 49 51 52 52 51 54 54 52 55 58 63 61 69 69 71 72 75 81 82 82 79 73 65 64 62 59 62 64 62 56 52 50 45 40
34 37 40 43 46 47 46 46 48 50 52 53 51 51 51 51 50 57 54 73 70 74 72 68 68 73 77 78 77 69 65 62 64 59 60 63 65 60 53 50 46 40 37
36 40 44 46 47 46 46 47 49 51 52 52 51 50 51 50 50 63 66 67 68 71 67 67 70 73 75 75 69 65 65 64 62 60 62 65 63 56 49 46 42 37 35
41 45 46 47 47 47 48 50 51 53 54 53 52 52 53 56 61 65 66 66 65 66 67 69 74 76 73 68 66 66 64 64 60 61 64 66 61 52 46 44 40 36 34
42 43 45 46 46 47 49 51 53 55 54 52 52 53 57 61 65 66 65 64 65 67 71 75 76 74 73 70 67 65 63 62 61 62 66 64 56 49 44 41 38 34 33
44 46 47 47 48 50 52 54 55 54 53 52 55 59 63 66 66 64 64 66 70 74 76 77 75 74 71 67 66 65 62 61 62 66 66 61 51 46 43 38 35 33 32
47 48 49 49 51 53 55 55 55 54 54 57 60 64 66 67 66 66 68 71 75 76 77 77 76 73 67 65 65 63 62 63 66 68 65 54 45 43 40 36 34 32 31
49 50 51 52 53 55 56 55 55 56 58 62 65 67 68 67 67 69 73 75 77 79 80 78 75 70 63 61 63 64 66 69 70 67 58 46 41 41 37 35 32 31 29
52 52 53 55 56 57 57 56 57 60 63 67 69 69 68 68 70 73 75 78 80 80 79 74 69 65 65 64 65 68 70 70 66 58 48 40 39 38 35 32 30 30 28

GFSMW_500_spd_036.txt.gz
Wind_Speed
13 14 13 13 11 11 9 8 7 5 7 8 9 8 8 8 7 8 11 14 18 22 25 30 34 37 41 44 47 47 49 49 48 48 48 49 47 47 47 47 50 51 51
11 10 10 10 11 11 9 8 7 8 9 11 11 9 9 9 10 13 15 18 24 27 31 34 37 40 43 45 46 48 48 46 46 49 49 46 48 50 51 54 55 54 55
8 14 15 12 10 7 8 7 9 13 14 14 14 12 13 14 16 17 19 24 29 32 35 37 40 43 43 45 45 45 47 44 50 53 49 52 53 54 54 57 58 60 62
8 11 11 10 9 9 9 9 12 15 14 13 15 14 16 18 19 20 24 30 35 38 39 39 43 42 44 45 45 45 44 48 53 52 53 55 59 58 57 60 63 65 67
13 12 10 8 7 11 12 12 12 14 15 15 14 14 17 22 24 27 30 37 40 41 43 43 45 46 47 49 45 51 53 53 54 56 59 59 60 63 66 67 70 73 76
18 18 18 15 13 15 16 15 11 12 12 11 13 15 19 24 26 30 35 42 41 42 44 46 46 46 44 47 52 48 58 55 57 59 60 62 66 70 73 74 76 79 82
19 23 27 23 20 19 16 13 13 18 12 14 17 20 24 28 31 31 39 40 39 40 47 49 48 50 44 55 52 56 56 59 61 63 65 68 73 76 77 80 81 87 89
14 18 25 27 18 15 13 15 18 19 13 17 22 26 31 33 34 35 38 38 41 43 52 50 50 40 54 53 55 57 59 61 64 68 71 75 79 80 83 86 92 87 86
12 10 11 12 13 11 12 15 19 16 17 22 26 31 35 37 37 37 35 39 47 52 55 54 56 54 52 54 57 58 60 65 69 73 77 76 81 83 86 91 90 90 86
13 11 11 12 13 12 17 17 18 20 24 27 32 36 39 39 38 38 41 47 49 56 56 57 60 55 54 55 57 62 66 70 73 74 77 84 85 87 91 89 89 89 85
18 17 15 17 17 18 21 24 24 25 27 32 35 37 40 40 37 38 40 52 56 57 61 62 58 55 54 56 60 65 70 73 76 79 83 83 87 87 88 88 85 83 74
20 20 19 21 23 24 27 30 29 30 34 37 39 41 41 36 39 49 53 57 57 60 60 59 56 55 56 58 64 70 74 77 80 78 82 86 86 87 87 84 80 69 66
24 23 23 24 26 29 30 30 32 34 36 39 40 38 39 46 52 52 56 58 57 59 57 56 58 57 60 64 72 75 77 80 77 86 84 87 87 84 83 79 67 63 65
16 19 21 25 28 30 31 32 32 34 37 39 38 43 46 48 51 54 57 58 57 57 60 59 57 59 60 68 74 80 78 81 82 82 84 85 84 82 76 68 62 63 68
20 22 25 28 30 30 29 30 33 35 38 38 41 42 45 49 53 56 57 55 56 58 58 57 61 61 62 70 78 80 81 76 77 82 83 83 78 73 71 63 63 65 68
25 27 29 30 30 28 29 33 36 39 41 43 43 45 49 52 54 56 53 58 59 58 58 56 60 67 76 79 80 82 79 76 79 81 82 77 71 69 66 62 63 66 65
28 30 31 31 29 31 34 37 40 43 46 47 47 49 51 53 54 54 55 59 57 56 59 65 66 74 78 77 78 80 77 78 79 80 75 70 69 67 63 62 63 65 60
29 29 29 29 31 34 38 41 44 46 48 48 49 50 52 55 56 57 57 56 56 53 56 71 73 75 75 75 75 77 78 78 80 76 71 68 66 65 61 61 63 62 55
29 29 31 32 35 38 42 44 46 47 48 49 50 52 54 56 57 56 55 55 58 61 65 70 73 73 73 74 77 77 78 80 76 72 67 64 64 62 61 62 63 59 51
30 31 33 35 38 41 43 44 46 47 48 50 52 54 56 57 56 55 55 59 63 67 70 71 72 71 72 74 77 79 81 78 73 67 64 63 62 61 62 64 62 55 47
30 33 36 39 41 42 43 45 46 48 50 52 54 56 56 56 55 56 60 63 67 69 70 69 70 71 73 76 79 79 78 73 68 64 62 62 62 62 64 64 57 51 43
33 36 38 41 42 44 46 48 50 51 53 54 55 55 55 55 57 60 64 67 69 69 69 69 70 74 78 79 78 78 75 69 65 61 60 62 63 66 65 60 52 47 40
37 39 42 44 46 47 49 50 51 52 54 55 56 55 55 57 60 64 68 70 70 70 69 71 74 76 78 79 78 75 68 64 62 61 63 65 67 66 62 52 47 44 37
42 44 46 47 48 50 51 53 54 55 56 57 57 57 58 62 66 69 70 70 70 72 74 76 79 80 81 78 74 69 65 65 66 66 66 67 65 59 54 46 42 41 36
46 48 49 50 52 53 55 56 56 57 58 57 57 59 63 67 70 71 71 72 73 77 79 81 84 84 82 72 67 67 65 67 70 72 65 61 56 51 46 42 39 38 34
51 52 53 54 55 56 56 57 59 59 57 57 60 64 68 72 72 72 72 74 77 79 81 82 82 79 74 69 69 69 70 72 70 64 56 54 50 46 42 39 38 35 33

GFSMW_500_spd_039.txt.gz
Wind_Speed
14 15 14 14 15 13 11 9 9 10 12 12 12 10 12 14 14 12 12 10 11 14 19 24 28 31 34 36 40 43 44 46 47 48 47 48 47 47 46 46 48 50 51
11 12 13 13 13 12 12 12 14 14 15 14 12 10 11 11 10 11 12 13 15 19 24 29 32 34 37 39 43 45 46 46 48 47 46 48 48 47 48 50 52 53 55
7 9 10 13 13 12 11 10 11 14 15 13 12 11 12 11 13 15 16 19 22 25 27 32 34 36 38 41 45 45 46 48 46 50 52 49 51 51 51 54 56 58 60
10 10 12 13 12 11 12 13 13 14 16 15 15 15 14 15 18 18 21 25 29 30 34 37 36 37 42 45 47 47 48 49 47 54 56 55 55 55 56 57 60 64 67
12 14 14 14 14 15 15 15 16 16 20 20 17 16 15 16 20 22 23 27 31 34 38 41 41 41 45 46 48 51 46 50 64 58 56 57 57 59 61 65 67 70 71
17 19 20 20 19 19 18 17 18 17 21 19 21 20 17 18 20 23 26 30 31 34 38 40 43 46 48 54 52 50 54 60 55 55 56 57 60 64 67 70 73 76 79
24 24 25 25 25 24 24 19 18 22 23 26 24 19 19 21 22 25 28 30 34 35 37 40 44 50 52 57 52 54 53 58 58 56 57 60 65 69 74 78 80 82 82
20 24 27 30 31 28 25 22 19 22 23 18 19 18 21 23 27 29 30 30 35 37 38 40 49 50 57 57 57 57 56 58 57 59 62 66 71 77 81 82 82 83 85
13 18 22 26 27 28 24 21 19 22 20 19 19 22 25 28 31 32 30 33 35 37 40 43 49 56 60 58 60 59 59 60 60 64 67 73 76 81 82 83 85 83 84
13 15 14 14 16 19 19 20 22 22 23 25 26 27 29 31 33 33 37 36 36 40 43 49 59 62 60 61 59 58 58 61 63 65 71 76 80 83 84 83 81 83 83
19 18 19 20 19 19 20 21 23 25 29 32 30 32 33 35 36 37 36 39 42 42 54 57 60 57 56 56 61 60 62 65 66 69 76 82 86 86 86 81 81 82 83
23 22 22 22 23 23 24 26 26 29 32 32 34 34 37 38 38 36 40 41 48 54 58 58 57 56 58 62 62 63 66 68 72 75 77 85 85 86 81 80 82 83 80
23 24 26 27 27 27 28 28 29 31 30 33 34 35 37 40 41 40 45 49 51 53 55 56 57 56 59 61 62 65 64 69 73 79 85 83 83 81 81 80 82 79 74
20 23 26 26 27 27 28 30 32 33 33 34 35 37 37 39 41 41 47 50 53 55 57 57 57 61 61 58 68 68 70 75 81 84 83 82 79 80 80 81 79 73 70
23 22 24 25 26 27 30 31 32 32 33 34 36 38 38 38 40 45 49 51 54 57 57 58 61 63 58 63 74 74 71 83 86 85 81 79 80 80 80 78 74 69 66
23 26 26 27 29 30 30 32 32 32 33 34 37 40 43 45 48 50 52 54 55 56 57 56 57 56 61 62 70 70 78 83 84 80 79 80 81 81 79 76 70 66 64
24 25 27 28 29 30 30 30 31 32 34 37 40 43 46 48 49 51 53 55 56 58 59 51 56 65 66 69 73 76 78 79 77 78 80 81 81 80 76 71 65 63 60
25 26 26 28 29 29 29 30 32 35 37 40 43 45 47 49 51 52 54 58 56 57 57 57 60 65 69 73 76 77 76 76 77 79 80 81 81 76 70 66 61 60 59
23 24 25 25 26 28 30 32 35 38 40 42 44 47 48 50 52 53 55 55 58 58 58 61 64 68 72 75 76 75 75 76 78 80 81 81 75 69 66 60 58 59 62
24 24 25 25 27 30 32 35 38 40 42 45 46 48 51 52 54 56 57 57 57 58 60 64 68 72 74 75 75 76 77 78 81 81 79 74 67 62 60 60 61 61 64
23 23 25 27 30 33 35 38 41 43 45 47 49 50 52 54 56 57 57 57 57 60 63 68 72 73 75 75 76 78 80 83 84 81 71 67 63 62 62 64 64 64 63
23 26 28 31 34 37 41 43 46 47 48 50 52 54 56 57 58 58 56 56 58 62 66 69 72 74 76 77 79 82 85 85 84 75 67 64 65 64 64 66 65 62 57
28 30 33 36 40 43 46 48 49 50 52 54 56 57 58 59 59 56 57 60 63 67 70 73 74 76 78 80 83 84 84 81 78 71 68 68 67 67 66 62 58 53 49
33 36 39 42 45 48 50 51 51 53 56 57 59 60 61 62 60 59 60 64 69 72 75 76 79 80 81 84 85 84 80 77 75 73 71 70 69 65 60 54 52 48 43
39 42 45 47 49 51 52 53 55 58 60 60 61 63 64 62 60 62 66 70 75 78 79 81 83 85 85 85 85 83 80 76 74 74 72 66 61 56 52 51 47 42 38
45 48 50 51 53 54 54 56 58 59 60 61 64 65 63 62 64 67 72 75 77 78 79 81 84 86 86 83 82 81 80 77 73 68 62 57 54 52 49 45 41 38 35

GFSMW_500_spd_042.txt.gz
Wind_Speed
10 12 12 11 12 12 10 9 8 8 9 10 12 12 12 12 13 15 16 15 14 14 14 15 19 22 27 31 34 36 38 43 46 46 50 48 45 46 49 49 50 48 48
8 8 8 7 7 8 8 9 10 10 12 12 9 9 9 13 15 16 15 15 15 16 18 20 24 27 30 34 37 38 42 42 48 48 50 47 52 51 55 56 53 51 52
7 8 9 9 11 12 11 10 11 12 14 14 16 11 12 14 15 14 16 18 18 21 24 29 33 34 37 38 39 42 44 47 51 50 51 49 53 59 62 56 54 54 57
8 8 9 10 12 13 12 12 13 14 16 16 17 14 13 16 17 18 18 19 22 25 30 32 36 39 39 41 41 44 48 51 54 53 54 52 60 58 61 59 57 58 62
11 11 12 13 14 15 15 14 15 15 16 17 20 20 19 18 18 17 19 22 24 27 30 33 36 41 42 44 44 44 51 53 58 57 61 59 57 58 58 58 62 65 68
14 15 18 18 17 19 19 18 17 17 20 21 24 24 25 25 22 19 20 24 28 30 30 33 37 42 44 47 47 50 56 58 62 61 61 59 60 58 58 61 63 67 72
21 22 20 21 23 23 23 24 21 22 23 25 31 28 31 31 27 23 22 27 30 31 32 37 39 42 45 49 51 54 55 66 61 63 61 61 62 61 62 64 68 73 80
21 21 23 24 26 27 28 28 27 25 26 25 26 31 30 19 20 22 26 29 31 32 34 35 40 39 46 49 52 59 66 62 55 64 65 65 64 64 68 70 74 78 84
17 18 22 25 27 28 30 30 29 27 26 28 27 24 14 19 24 27 30 31 33 32 34 38 40 45 48 48 59 63 59 54 63 64 66 64 65 69 69 72 77 83 85
19 18 20 20 19 20 21 20 21 25 27 28 27 28 28 29 30 31 32 33 34 32 35 44 44 47 52 63 64 61 57 58 59 67 65 65 71 70 73 76 83 86 84
23 20 21 21 20 20 20 21 23 25 27 30 31 32 33 32 33 31 34 35 34 33 41 47 50 55 58 59 59 57 58 57 61 67 68 72 74 76 79 86 89 87 83
24 26 25 26 26 26 25 25 27 28 29 31 34 35 34 36 36 36 36 36 37 39 40 49 54 55 55 56 56 58 62 59 61 65 72 74 75 81 85 89 89 84 82
23 24 26 28 31 32 31 31 30 31 31 33 34 35 37 38 39 39 39 42 43 46 48 50 51 55 56 56 57 58 54 54 63 67 73 78 84 85 87 87 83 82 83
23 23 24 28 31 33 33 33 31 30 31 33 35 37 37 38 39 40 40 42 44 47 49 51 52 54 53 52 62 53 58 65 64 72 77 81 84 85 84 81 81 83 83
24 23 26 28 28 30 29 28 29 30 32 34 35 36 37 38 38 40 42 44 46 49 52 55 57 58 54 59 65 62 64 68 73 77 80 83 82 81 80 80 82 83 81
23 24 25 27 27 28 29 30 31 32 33 33 34 35 36 37 40 42 45 47 50 52 55 56 58 60 60 61 62 63 65 69 74 78 81 81 80 80 81 81 81 80 75
26 26 28 27 27 28 29 31 32 33 33 33 34 36 38 40 43 45 47 50 53 55 57 59 60 60 62 62 63 65 68 71 74 77 79 80 81 81 82 82 81 75 68
26 24 25 27 28 29 29 30 31 31 32 33 35 37 40 43 45 48 50 52 54 57 58 59 60 61 61 61 63 65 67 69 72 75 78 80 81 83 83 81 77 68 62
26 25 24 24 25 27 28 28 29 30 32 34 37 40 43 46 48 50 53 55 57 58 59 61 60 59 60 62 65 68 70 73 75 78 80 82 83 83 82 77 69 63 62
23 23 23 25 25 25 26 27 29 32 34 38 41 44 46 49 51 53 56 57 58 60 61 62 61 60 62 66 70 74 77 78 79 80 81 83 82 80 76 70 67 66 66
23 24 24 23 24 26 27 30 32 36 39 42 45 47 49 51 54 56 57 58 59 61 62 62 62 64 68 72 75 79 83 84 85 85 84 83 81 75 71 70 69 68 68
22 21 22 24 26 29 31 34 38 41 44 47 49 51 52 54 56 58 59 60 62 63 63 63 65 68 72 76 81 85 86 88 89 87 84 82 79 75 73 72 70 68 63
22 24 26 29 31 34 37 41 44 47 50 51 52 53 55 57 58 59 61 63 64 64 64 66 69 73 77 82 85 87 88 85 85 85 84 81 78 74 70 67 65 60 55
27 30 32 34 37 40 43 46 49 51 52 53 55 57 58 59 59 61 64 65 65 65 66 69 73 77 82 87 90 92 91 88 87 87 83 78 74 72 69 64 58 56 53
33 35 38 40 43 46 48 50 51 53 54 56 58 59 59 60 63 65 66 67 67 69 72 75 79 83 86 90 92 93 92 91 88 84 76 72 69 65 59 52 51 49 46
39 42 44 47 49 51 51 51 53 54 57 58 58 58 60 64 67 68 69 70 73 74 77 81 83 87 90 90 90 89 88 87 83 77 71 66 62 53 46 43 44 41 40

GFSMW_500_spd_045.txt.gz
Wind_Speed
7 7 8 10 11 9 10 8 9 9 9 8 7 6 6 10 13 14 14 15 14 15 14 14 15 20 23 25 27 28 32 35 36 38 41 46 46 48 46 48 52 56 56
2 3 4 4 5 6 5 3 3 4 5 5 3 4 7 9 13 15 16 16 16 14 16 17 20 24 28 30 33 38 40 38 38 41 45 49 53 54 52 52 53 53 53
2 3 2 2 2 4 5 6 5 5 6 7 10 11 12 12 13 13 15 14 15 16 19 21 25 29 35 37 39 39 42 44 44 46 47 53 57 63 62 59 58 58 56
4 4 5 6 7 8 8 7 7 7 8 10 14 15 15 13 15 16 16 16 18 21 23 27 30 33 36 38 39 39 42 45 47 50 52 58 63 67 62 65 65 63 61
7 7 9 9 10 11 12 11 12 13 13 13 15 16 16 20 19 21 23 23 23 23 25 27 31 35 37 38 41 43 44 49 53 56 57 63 67 66 60 61 62 65 65
12 12 13 13 13 14 16 16 17 17 16 16 18 20 25 24 23 25 25 25 24 24 25 28 31 35 38 40 43 45 45 50 52 54 60 68 68 66 65 65 65 63 65
21 18 17 17 16 19 21 21 21 22 21 21 21 22 18 27 40 34 34 30 28 27 26 29 35 36 37 39 43 45 48 54 60 57 70 70 67 64 64 63 65 68 71
23 20 18 18 20 19 20 21 23 25 23 27 26 19 19 24 27 16 36 25 26 27 30 32 37 37 37 38 43 48 53 55 59 65 70 67 64 64 73 68 76 71 71
22 18 18 18 19 22 23 23 26 26 23 20 31 23 22 23 25 26 26 27 30 31 33 35 38 37 38 43 50 53 54 59 63 65 66 65 66 67 65 68 71 72 74
22 21 19 19 20 21 23 22 23 22 21 21 25 26 27 27 29 31 30 33 31 33 36 38 37 39 41 49 47 51 60 63 66 64 63 65 64 65 69 72 71 76 80
24 24 23 22 22 24 24 24 24 24 24 21 27 29 31 32 33 35 34 36 35 38 39 40 42 44 44 49 53 59 60 61 65 64 62 64 63 66 69 72 77 81 84
23 27 27 27 27 28 29 30 29 28 28 29 29 33 35 35 35 36 38 39 40 40 41 43 44 45 49 51 58 60 59 57 60 66 67 68 71 74 75 79 81 82 82
22 25 28 29 30 31 33 34 33 32 32 34 36 35 35 36 38 39 39 39 41 42 42 43 46 49 51 54 56 59 57 57 61 70 74 75 70 71 73 75 75 77 79
21 24 26 29 31 34 36 37 38 38 38 39 37 36 35 37 39 38 39 39 41 43 44 47 49 52 55 57 58 61 64 64 64 66 69 68 69 71 72 74 76 79 82
23 25 27 28 31 33 33 33 32 33 33 34 35 35 37 38 37 38 40 41 42 44 47 50 53 55 58 59 60 62 65 66 64 69 66 67 69 71 74 77 80 84 86
27 27 29 29 29 32 32 29 29 30 32 34 34 36 37 36 37 38 39 41 44 47 50 53 55 58 60 61 63 65 66 65 65 65 68 70 73 76 79 81 84 85 84
33 33 32 31 30 31 31 31 30 31 32 34 35 35 34 35 37 39 41 45 48 50 53 55 58 60 62 62 64 65 66 66 67 68 72 76 79 82 85 89 88 84 83
34 34 33 32 31 31 32 32 32 33 34 35 34 34 35 37 39 42 45 48 51 53 55 58 60 61 62 64 66 66 67 68 70 73 77 79 82 85 87 87 86 85 83
30 32 32 31 31 30 30 31 32 34 33 33 34 35 37 39 42 46 49 51 53 55 58 60 61 62 64 65 66 67 68 69 72 76 79 82 85 87 86 86 85 82 78
27 27 27 27 28 29 30 32 31 30 31 33 34 37 40 43 46 50 52 54 56 58 60 61 62 63 65 65 67 68 71 73 75 78 81 85 88 88 86 84 83 81 73
25 25 25 27 28 30 30 29 30 32 33 35 38 42 45 48 51 53 54 56 59 61 61 61 63 64 65 67 69 72 74 77 79 82 86 89 89 89 87 85 82 77 71
25 25 27 28 29 28 29 31 33 35 37 41 44 47 50 52 53 55 56 58 59 59 60 61 62 65 67 70 73 75 78 82 85 87 90 91 90 88 85 82 75 71 68
26 26 27 27 28 30 33 34 37 40 43 46 49 52 53 54 55 56 58 59 58 59 59 60 64 67 71 74 75 79 82 85 88 90 90 91 89 87 82 75 70 66 63
26 27 28 30 33 35 37 40 43 47 49 52 53 54 56 57 58 59 59 59 60 60 62 65 68 71 74 78 81 83 86 88 89 91 90 89 88 85 78 71 66 60 54
30 32 34 36 38 41 44 46 49 52 53 54 55 56 58 58 59 60 61 61 62 64 68 71 75 77 80 81 84 87 89 91 92 93 92 90 85 77 71 67 60 53 45
35 38 39 42 45 47 48 50 52 54 55 56 57 58 58 59 60 62 63 64 66 70 73 77 80 82 83 84 87 88 89 90 89 88 87 81 75 71 68 61 54 46 40

GFSMW_500_spd_048.txt.gz
Wind_Speed
13 11 11 9 10 14 16 16 15 13 15 14 12 11 8 5 4 3 5 7 8 12 14 15 14 17 18 20 23 26 28 32 34 35 34 36 38 42 45 48 52 55 55
8 9 7 8 7 7 9 10 11 9 9 8 8 7 4 3 2 4 8 10 14 17 17 18 17 18 21 24 27 32 34 37 36 34 37 39 43 45 49 51 53 57 60
2 4 2 4 3 5 7 8 8 9 8 7 7 6 7 8 9 9 10 14 16 16 17 17 20 22 27 25 31 35 35 36 36 39 41 41 46 50 53 57 60 64 62
4 3 1 1 3 3 3 5 7 8 8 8 7 8 10 10 12 14 15 15 16 19 19 22 25 25 28 31 31 34 34 37 39 42 46 48 50 53 59 60 65 68 67
6 6 8 8 7 5 4 5 5 7 8 10 10 11 10 10 12 16 18 20 26 25 24 25 28 29 28 30 31 35 37 41 44 45 50 51 55 58 60 62 70 70 67
8 10 10 10 9 9 9 10 10 11 11 12 12 13 12 12 14 17 17 29 34 34 28 29 25 29 30 30 34 37 38 39 42 47 51 56 58 64 66 69 69 67 67
12 15 14 11 9 9 10 12 13 14 14 12 15 17 11 24 18 18 23 22 30 31 28 28 28 28 28 32 34 34 38 40 47 50 56 57 58 67 70 71 68 64 65
20 15 16 12 12 9 9 11 13 15 16 16 13 16 17 16 16 20 27 27 28 18 20 25 26 28 31 34 37 37 38 42 45 49 58 58 67 71 69 69 66 66 67
27 26 22 20 17 14 12 12 14 15 17 16 15 23 22 11 15 19 25 31 25 25 28 25 28 32 37 40 39 42 43 47 48 55 58 67 70 71 70 69 68 69 74
20 22 25 23 23 24 19 13 14 20 22 20 17 22 24 17 19 23 27 31 31 29 33 32 34 37 39 42 43 44 46 48 51 57 62 67 68 66 68 67 70 78 77
20 22 22 21 20 27 33 24 23 22 25 24 23 27 29 28 27 29 30 32 30 33 33 35 38 39 41 42 44 46 49 51 53 57 61 61 60 73 73 71 72 75 73
22 17 21 25 25 25 27 29 30 30 30 29 28 28 31 33 33 35 33 32 33 35 36 38 39 40 42 44 47 50 51 53 56 59 61 60 62 69 72 69 72 76 74
18 23 20 24 26 27 30 33 33 34 35 35 34 33 32 37 35 35 34 36 37 37 37 39 40 42 44 46 49 53 55 56 59 62 63 64 67 70 68 73 73 75 78
22 23 27 24 26 27 30 34 36 38 40 42 42 39 40 39 36 35 36 38 39 38 40 41 42 45 47 50 51 54 58 60 61 62 64 66 68 69 70 73 76 79 82
23 26 29 28 27 28 30 32 35 38 38 38 34 34 35 34 35 37 39 39 39 40 41 42 44 48 50 52 55 58 60 61 61 62 64 66 67 68 71 75 77 80 83
28 25 30 35 28 29 29 30 31 35 36 34 32 34 36 36 37 37 38 38 38 39 41 45 48 51 52 54 56 59 61 60 60 61 62 65 67 70 73 76 80 81 84
27 29 33 37 36 33 32 32 32 33 33 30 30 32 34 34 34 35 35 36 38 41 45 48 51 53 54 57 58 60 59 59 60 60 63 65 69 72 76 79 81 83 86
28 29 32 35 35 35 34 34 33 33 32 33 34 34 34 34 34 35 37 40 43 46 50 53 55 56 57 59 60 59 59 59 61 64 67 70 72 76 79 82 84 87 89
30 30 30 33 33 33 33 32 33 32 33 34 35 36 36 36 37 39 41 44 47 51 53 55 56 57 59 60 59 59 59 61 63 66 70 73 76 80 84 88 90 92 90
29 29 30 30 31 30 31 31 32 34 35 36 36 35 36 38 39 42 45 49 53 55 57 58 59 60 61 60 60 60 62 64 67 71 74 77 81 85 88 91 94 95 93
30 30 28 29 29 31 31 31 32 34 35 35 35 37 39 41 43 47 51 54 57 58 59 60 61 61 61 62 62 62 67 70 73 77 80 83 86 88 89 91 94 93 92
32 30 28 28 30 30 31 31 33 33 34 35 38 41 43 46 50 53 56 58 58 59 60 62 62 63 64 66 67 70 72 75 79 83 87 88 87 88 91 93 92 90 86
32 31 30 30 30 31 32 32 32 35 38 40 43 45 49 52 55 58 59 60 61 62 62 62 64 66 69 68 70 73 76 80 84 88 90 89 87 88 90 88 88 83 76
33 33 33 33 33 33 33 34 38 40 42 45 48 51 54 57 60 60 61 62 63 62 61 62 65 69 72 72 73 77 81 84 88 88 88 87 87 89 86 85 80 74 68
37 36 36 38 38 38 40 43 45 47 49 50 53 55 58 60 61 62 63 64 66 65 65 70 75 76 75 75 78 82 86 89 89 88 87 88 88 85 83 79 73 68 64
40 39 40 42 43 44 46 49 52 52 53 56 57 58 60 60 61 60 61 66 69 70 71 73 76 79 79 80 83 87 90 90 88 87 87 86 82 81 78 73 67 62 61

GFSMW_500_spd_051.txt.gz
Wind_Speed
12 15 15 16 18 20 20 18 19 22 23 19 16 17 17 14 14 12 9 10 11 12 12 12 13 13 18 18 19 20 23 25 26 31 32 31 29 30 34 36 41 43 46
11 10 12 9 11 13 16 18 18 19 15 15 12 15 13 12 9 6 2 3 8 11 13 14 15 16 20 20 21 23 24 28 31 33 32 33 32 37 40 44 47 51 52
7 6 7 6 8 11 13 14 14 14 12 11 11 10 11 10 8 6 1 5 9 13 15 14 17 20 20 22 23 26 29 33 32 34 34 35 37 41 43 47 50 53 55
6 5 7 6 7 8 8 9 10 11 12 11 10 9 7 5 2 2 2 4 7 10 14 17 18 20 22 24 25 27 29 33 34 34 36 39 40 44 47 49 53 56 57
4 7 7 7 7 6 4 4 5 6 5 5 6 6 3 2 4 4 8 11 11 14 21 24 26 25 26 28 29 28 31 33 36 39 39 39 43 48 49 51 58 63 63
2 4 5 4 4 4 2 1 1 1 1 2 3 4 6 7 3 10 8 8 8 16 16 32 31 28 31 29 29 34 33 34 30 37 40 42 46 51 54 55 63 64 70
5 6 5 4 5 4 7 6 5 6 6 7 8 9 9 9 12 10 12 14 13 18 21 15 29 26 30 28 28 27 28 31 35 39 39 40 53 55 52 55 64 68 71
2 5 7 8 7 9 9 10 10 9 7 7 8 8 12 13 12 13 13 15 17 17 17 18 18 18 19 24 25 30 33 34 37 41 43 45 47 51 56 65 66 65 62
17 16 15 16 15 13 13 12 11 11 8 7 8 10 13 10 8 14 15 18 19 20 19 18 25 23 25 29 30 32 35 36 39 42 43 44 46 55 55 57 61 60 57
23 19 18 16 17 15 16 18 12 14 16 15 10 13 17 16 18 16 18 23 24 26 23 23 28 28 29 30 32 34 35 37 41 42 44 47 51 53 55 58 59 60 60
18 22 23 20 17 19 21 19 32 28 18 20 17 21 25 25 20 27 16 26 27 29 28 27 31 31 32 32 34 36 38 41 44 47 48 52 53 56 57 57 59 60 61
14 15 20 25 25 23 25 23 23 20 23 25 21 21 29 41 22 21 26 27 29 28 29 32 34 35 35 35 37 39 42 44 47 50 52 54 57 56 57 59 61 62 65
24 18 15 17 21 28 28 25 25 26 26 23 18 20 23 30 32 36 34 34 29 30 32 34 34 35 35 37 39 42 45 47 49 51 54 57 56 57 59 60 61 64 67
29 22 19 16 19 22 29 31 28 29 30 27 30 32 33 35 36 34 33 30 31 32 36 36 35 36 37 40 43 47 49 51 52 54 56 58 59 61 60 62 64 67 70
24 28 23 20 16 20 24 29 32 34 34 34 33 35 36 38 37 34 33 35 35 36 36 36 37 38 40 44 48 51 53 54 56 58 59 59 62 63 63 64 66 70 73
28 23 27 24 19 16 21 27 31 33 33 33 33 34 35 34 35 34 35 35 35 36 36 37 38 41 45 49 52 54 55 57 58 59 59 62 62 62 64 66 70 74 78
26 20 27 31 29 24 24 28 30 32 32 33 33 33 31 31 31 34 34 36 37 36 37 38 41 45 50 54 56 57 59 60 61 61 62 63 63 65 66 69 73 77 81
24 25 27 32 30 29 28 28 31 33 32 31 32 32 31 31 32 33 35 34 35 37 39 42 47 51 55 57 58 59 60 61 62 63 65 68 67 70 72 74 77 82 85
29 30 29 29 29 30 30 30 29 30 31 32 32 32 35 34 35 36 36 37 38 41 44 48 52 56 58 59 60 61 62 63 64 66 68 70 72 75 77 79 83 86 88
29 29 30 29 30 30 29 28 29 31 32 33 34 35 36 38 38 37 38 40 43 47 50 54 57 60 60 61 62 62 64 63 65 69 73 75 77 78 82 86 88 90 93
32 31 32 32 32 31 30 28 28 30 33 34 35 37 38 39 39 40 42 45 48 51 55 59 62 62 63 63 64 65 65 64 69 72 74 77 80 83 87 89 91 94 96
36 37 37 35 35 34 33 30 30 30 33 36 38 39 39 40 42 45 47 50 53 57 60 62 62 63 64 65 67 69 70 72 75 76 79 81 83 87 91 92 94 96 98
38 39 39 38 37 36 35 34 32 33 36 38 39 39 41 44 47 50 52 55 59 61 64 65 64 63 62 65 69 72 74 76 77 80 82 83 87 92 95 93 93 93 90
41 41 40 40 40 39 37 37 37 38 38 39 40 43 46 50 52 54 57 61 63 63 67 68 66 63 68 72 72 74 77 78 80 82 83 87 91 93 93 93 93 88 84
43 47 46 43 43 42 40 40 41 42 43 44 45 48 53 55 57 58 62 64 62 64 67 62 64 69 72 73 75 76 76 80 84 84 86 89 90 91 93 93 89 83 80
43 44 45 46 46 45 44 44 44 46 47 48 51 54 57 59 62 64 65 64 64 68 66 68 72 75 76 77 75 76 81 84 86 88 89 89 91 94 94 90 85 81 78

GFSMW_500_spd_054.txt.gz
Wind_Speed
10 11 12 15 20 22 15 13 14 12 7 10 16 19 14 16 15 21 23 20 21 18 18 15 15 15 18 19 21 22 22 24 23 24 25 26 31 30 32 33 34 36 37
8 10 11 10 12 18 20 20 21 22 18 19 19 19 16 17 15 14 15 18 18 17 17 17 17 18 18 21 23 23 24 24 24 27 31 31 31 30 31 34 36 36 39
6 5 6 8 9 12 15 17 17 17 17 17 17 16 15 16 14 12 12 12 14 16 16 17 18 19 21 24 26 25 26 26 27 30 33 35 35 35 37 38 38 40 44
8 6 6 6 8 10 10 14 15 16 15 15 14 14 12 12 11 9 6 6 6 8 9 14 18 20 21 22 24 26 28 29 30 31 34 37 38 36 37 41 40 41 44
9 6 5 4 5 7 9 10 11 12 12 11 11 9 8 6 5 5 3 2 5 5 7 13 20 23 24 25 25 30 29 33 35 35 37 39 31 38 41 45 39 47 50
6 3 4 2 2 2 3 4 6 7 6 6 7 8 6 2 5 3 3 6 5 6 7 8 11 24 30 32 33 30 31 31 36 34 31 33 35 39 40 41 47 50 51
1 2 6 5 2 3 2 2 3 4 6 6 6 5 5 7 6 7 8 12 12 11 10 12 11 14 16 21 26 28 30 32 30 29 32 36 37 39 41 44 49 49 52
3 2 5 9 10 9 7 6 7 7 8 7 7 8 12 9 10 11 11 12 13 14 14 13 11 15 16 19 23 26 26 30 33 32 32 36 37 40 44 47 50 51 54
6 5 4 7 10 12 12 12 10 10 9 12 12 12 14 16 13 17 18 16 16 16 17 16 14 17 21 23 25 27 31 32 32 33 35 37 40 44 46 48 51 54 54
3 6 7 8 10 11 13 16 16 17 19 20 17 16 17 17 18 18 19 19 23 17 17 21 20 22 25 27 29 30 31 32 33 34 38 41 45 49 49 52 55 55 54
7 7 8 7 9 11 13 17 19 23 26 29 29 20 22 24 24 25 27 21 23 24 19 21 22 22 28 31 32 32 32 32 34 37 41 45 48 49 52 56 57 55 57
17 14 13 12 13 14 12 12 16 18 22 21 17 18 26 27 26 37 31 25 17 26 25 27 25 26 30 33 33 33 34 35 38 41 45 48 50 48 53 56 56 56 59
20 19 18 19 18 18 18 17 16 15 19 20 18 20 17 26 26 21 23 25 20 24 24 25 27 30 34 35 34 34 36 38 42 46 50 52 53 53 55 57 57 59 62
23 19 17 20 24 23 21 21 22 20 21 22 25 23 25 29 28 25 24 29 27 27 26 30 31 34 36 35 36 37 40 43 48 51 54 55 55 57 58 58 60 63 66
25 26 24 25 25 26 26 26 25 24 26 25 25 26 27 28 28 27 27 28 28 30 32 32 34 36 35 36 38 40 44 49 52 54 57 58 60 60 61 62 63 66 69
34 27 19 19 28 20 17 20 26 30 30 30 29 29 31 31 30 29 29 30 32 33 35 36 38 37 38 39 41 45 50 54 57 60 61 61 62 62 63 65 66 69 73
32 31 32 28 25 23 23 24 26 31 32 32 32 32 32 32 30 28 29 32 35 35 36 38 38 38 40 42 46 51 55 59 61 62 62 63 63 64 65 65 68 73 77
37 35 29 23 25 26 26 26 26 28 31 32 32 32 33 33 32 33 34 35 36 37 38 38 40 41 44 48 52 55 59 62 63 63 63 64 66 68 70 72 75 76 78
36 35 34 31 28 26 24 25 26 27 28 28 29 29 29 32 35 36 36 38 40 41 41 43 44 46 49 53 57 60 62 64 65 64 63 65 68 72 74 76 78 78 81
44 39 37 32 30 29 29 28 29 30 29 28 30 31 32 34 37 38 39 40 42 43 44 46 48 50 53 57 61 63 66 67 66 64 64 68 72 74 76 78 79 80 84
48 43 34 36 35 34 32 33 33 33 33 34 33 34 37 39 39 40 42 43 43 45 47 50 52 55 58 61 65 67 68 68 68 68 72 74 76 77 78 80 81 85 86
52 42 38 38 37 37 38 39 38 37 38 39 39 38 40 40 42 44 45 45 46 49 51 53 56 59 62 67 68 66 70 69 67 69 72 75 77 78 79 82 87 87 90
43 41 40 41 40 39 40 40 40 41 41 42 43 42 42 44 46 47 47 48 51 53 56 58 62 65 69 71 68 69 71 72 74 75 77 78 80 81 83 86 87 91 92
40 41 43 46 43 43 43 43 43 43 43 43 44 44 45 46 47 49 52 55 57 58 60 63 67 69 69 69 67 71 73 75 78 81 85 85 84 83 84 85 89 91 94
45 39 39 38 39 41 43 44 45 46 47 47 47 47 47 49 52 54 57 59 61 63 66 68 67 68 68 67 68 71 75 78 84 88 90 86 84 85 87 88 89 92 96
50 48 51 46 44 47 45 44 44 45 49 51 51 51 52 54 56 59 60 63 66 67 68 63 65 68 69 71 76 80 84 88 91 88 83 84 84 86 88 90 91 95 94

GFSMW_500_spd_057.txt.gz
Wind_Speed
2 7 9 13 2 13 17 19 18 22 27 27 27 30 30 24 25 25 27 27 24 24 22 20 26 25 21 21 21 21 22 23 27 27 26 25 27 27 29 30 31 31 32
2 6 10 9 12 10 12 11 9 14 22 26 27 25 25 22 26 27 25 17 18 18 22 24 23 21 19 20 20 21 24 28 29 27 28 28 28 32 33 34 35 37 36
4 1 6 7 8 10 14 15 15 15 16 17 20 20 17 16 17 16 16 17 17 20 21 18 19 20 21 21 22 23 28 29 31 30 30 31 30 31 33 36 38 37 38
5 5 4 6 8 10 11 8 8 12 15 16 16 17 19 17 14 14 15 15 18 19 20 20 21 21 21 22 25 28 28 30 32 32 33 34 35 37 39 39 37 36 39
3 3 5 5 5 8 10 11 11 11 13 14 15 16 15 13 13 15 14 15 17 18 17 17 18 20 21 25 26 29 29 30 33 34 32 37 40 41 41 36 36 39 40
5 1 4 6 4 5 7 9 9 8 9 11 12 13 14 14 14 15 16 18 17 16 13 10 10 12 16 22 30 34 32 31 34 30 35 37 40 38 36 37 37 37 40
6 4 2 6 4 2 3 4 7 7 8 10 12 13 13 11 14 13 13 14 13 14 15 12 12 14 15 16 26 35 35 37 37 37 32 31 35 37 36 36 37 39 43
7 5 6 3 3 4 5 5 4 6 8 8 9 9 10 12 13 13 13 13 15 15 17 19 18 17 18 19 17 21 29 28 30 31 35 37 36 36 35 37 41 43 47
8 8 9 9 6 6 8 7 9 9 9 11 13 15 15 15 16 15 16 17 17 18 21 21 22 22 19 19 24 24 24 28 31 35 37 35 36 36 38 42 45 49 50
10 9 9 10 9 8 11 10 11 12 14 14 15 18 21 18 17 19 19 21 20 24 29 31 28 25 23 25 24 27 28 31 33 34 35 35 36 38 43 47 51 53 55
10 9 7 10 10 11 9 12 15 18 18 18 19 20 27 26 25 26 29 31 32 30 34 24 24 23 24 24 26 28 31 34 35 36 36 36 38 42 47 51 53 55 55
13 12 11 13 14 15 14 12 14 17 20 22 21 24 22 26 27 29 25 33 30 36 23 23 23 23 23 27 27 31 35 36 37 38 38 40 42 47 50 54 55 55 55
22 24 16 15 19 19 19 20 19 19 21 22 22 23 18 21 22 21 22 29 27 18 19 22 27 26 25 28 30 35 38 37 39 39 41 43 48 51 54 56 56 56 57
24 22 23 17 16 19 21 22 25 24 22 22 23 22 23 25 25 27 23 24 28 25 23 23 25 26 29 31 34 37 38 40 41 42 44 48 52 55 58 59 59 60 61
31 29 28 22 21 24 25 24 24 24 23 23 24 23 25 26 27 24 26 27 28 29 28 28 28 29 31 33 36 38 41 42 44 45 47 52 55 58 60 63 63 61 62
36 34 32 30 26 23 24 23 21 23 27 26 26 28 30 30 30 28 27 28 30 30 30 31 34 34 35 37 40 42 43 45 46 49 52 56 59 62 64 63 62 62 65
31 32 28 26 24 30 30 31 25 24 26 28 26 29 32 33 33 31 30 32 32 33 33 34 36 36 38 40 43 44 45 47 49 52 56 60 62 64 65 65 66 67 71
35 36 31 31 32 31 37 30 26 26 27 28 27 27 30 31 32 34 35 35 35 37 34 36 39 41 43 43 43 45 48 50 53 57 60 63 66 68 68 70 69 71 73
36 34 31 33 33 27 27 29 29 29 28 27 30 31 31 31 32 33 35 34 36 36 39 41 44 47 47 46 46 49 52 56 58 61 63 66 69 69 70 72 72 72 77
35 36 34 37 36 35 33 33 33 31 30 30 32 33 33 34 35 36 37 39 40 41 45 47 48 49 49 50 51 55 58 61 63 64 67 72 72 71 72 75 78 80 82
38 40 42 43 42 39 36 37 37 35 36 34 36 37 36 38 39 40 42 43 43 46 48 49 50 52 52 54 56 60 62 64 67 69 74 74 72 73 75 76 78 81 86
45 44 45 43 41 41 39 40 41 40 40 39 39 40 41 42 42 42 43 45 47 48 50 52 55 56 57 59 61 64 65 68 70 73 73 72 72 74 76 80 84 88 90
46 45 44 46 44 41 40 38 40 43 43 42 42 42 43 45 46 45 46 48 50 52 54 56 58 60 62 64 66 67 69 72 73 73 73 73 76 79 83 86 88 88 89
47 48 44 41 41 39 41 42 39 40 43 44 45 46 47 47 48 50 50 51 53 56 58 60 63 65 67 68 69 70 74 75 74 73 76 79 82 84 86 88 89 88 86
45 48 49 48 45 44 45 43 39 43 47 47 49 49 48 50 52 54 55 57 58 61 63 65 67 69 71 71 73 74 74 75 77 81 84 86 87 89 90 90 89 86 85
51 52 53 57 52 49 49 52 51 46 48 54 52 52 53 53 54 56 58 60 61 64 67 69 72 74 76 76 75 77 79 82 85 88 88 88 89 91 92 89 86 85 86

GFSMW_500_spd_060.txt.gz
Wind_Speed
5 10 12 14 4 9 13 19 22 19 17 17 19 19 22 21 26 24 23 28 26 25 25 24 25 25 20 19 16 20 24 23 23 26 28 29 30 30 28 27 31 32 32
5 6 8 9 12 3 9 12 17 23 23 20 21 21 27 26 27 29 27 32 33 29 27 25 23 22 18 22 24 22 21 22 26 29 29 29 32 32 29 32 33 33 34
6 6 6 6 7 7 6 5 4 8 12 23 25 24 26 30 33 31 26 30 31 25 28 26 24 27 26 24 21 20 22 24 25 27 29 33 33 34 33 34 34 36 39
6 5 7 2 1 4 4 5 4 4 2 6 6 15 22 17 22 23 25 24 20 20 22 24 24 26 24 19 18 23 26 26 27 30 33 35 35 36 38 37 38 40 41
3 1 3 4 3 3 5 5 5 5 5 7 8 11 15 14 15 15 16 19 20 20 22 22 22 22 20 20 25 27 27 28 29 31 33 34 36 36 38 38 38 39 37
5 2 2 4 5 5 4 3 3 4 5 6 8 10 11 13 12 13 14 16 17 19 22 22 21 20 18 22 26 25 25 29 33 34 35 40 39 35 38 40 36 38 39
11 8 5 4 5 6 6 6 6 6 6 6 6 7 9 10 11 13 14 13 17 21 21 18 17 17 16 17 17 19 27 30 36 35 37 43 42 33 34 35 38 38 37
11 9 9 7 6 6 7 8 8 9 9 9 8 10 12 13 13 15 16 16 17 16 17 18 18 20 19 21 21 24 25 22 27 31 34 31 34 37 38 40 41 39 39
13 14 13 12 10 10 9 9 9 11 12 11 9 10 10 12 15 17 17 16 17 17 19 21 23 24 25 25 24 26 29 30 29 30 32 31 35 39 40 41 39 40 40
16 16 15 16 15 14 11 10 11 12 12 12 12 13 14 14 16 16 19 19 20 21 22 23 25 28 31 31 31 29 32 32 32 32 33 36 37 39 41 41 41 42 44
19 18 15 14 14 13 12 11 12 15 15 15 17 18 19 22 23 25 25 22 25 25 27 32 29 36 41 35 35 35 33 34 34 36 37 39 40 42 41 41 41 44 48
20 21 15 11 14 17 16 15 17 18 18 20 21 22 24 25 27 25 26 30 33 34 39 38 39 37 42 31 28 35 31 32 36 40 42 41 42 43 42 42 44 46 51
20 21 20 20 23 24 23 21 19 19 21 23 24 24 21 19 20 17 19 25 25 31 36 32 37 23 24 28 29 31 34 35 39 41 43 44 45 44 43 44 49 52 56
24 28 26 23 26 24 23 25 24 22 23 23 25 25 25 23 23 24 27 26 28 29 29 27 22 24 27 29 31 33 36 38 41 43 45 46 45 44 46 49 53 55 58
24 25 28 21 24 27 26 28 26 26 26 24 24 23 24 24 25 26 27 30 31 30 28 28 28 29 31 32 32 35 38 41 42 45 47 46 46 48 50 53 56 57 61
32 34 28 30 28 26 27 28 29 31 30 30 28 25 25 26 25 27 28 29 33 33 33 33 32 35 33 33 36 37 39 41 45 47 48 48 49 51 54 56 58 60 64
33 36 32 27 24 27 25 25 26 32 32 32 29 27 26 28 29 29 30 30 32 34 34 34 34 34 37 38 38 40 42 45 47 49 49 50 52 54 56 59 62 64 69
35 35 36 28 24 23 26 25 28 31 32 33 31 28 27 28 29 30 30 30 33 34 36 36 37 41 41 42 43 46 47 50 53 53 52 54 56 57 60 63 66 69 72
32 36 35 33 26 27 27 30 30 29 27 31 33 31 30 31 30 31 32 33 34 35 37 40 43 44 44 45 49 50 53 54 55 55 56 58 60 61 63 66 69 75 74
39 33 34 34 34 32 32 31 31 33 27 30 37 36 35 35 35 34 34 35 37 39 41 44 45 46 49 50 53 57 56 56 58 58 60 61 63 65 67 70 74 74 69
43 42 38 40 38 36 35 36 36 36 33 34 39 41 41 40 41 38 38 38 39 41 43 45 47 49 51 54 56 56 57 59 61 62 63 65 67 68 70 74 75 71 74
51 46 40 46 44 42 38 38 37 37 38 38 40 43 45 43 43 43 41 40 41 42 45 47 49 51 53 55 57 58 61 62 64 66 67 69 71 73 77 78 78 80 82
49 51 50 49 44 41 35 40 41 44 42 42 41 42 43 43 45 46 45 46 46 46 48 51 53 54 56 58 60 62 64 66 68 70 72 74 77 81 81 80 83 85 86
44 46 48 47 51 50 46 46 45 44 46 44 42 41 40 39 42 44 45 48 50 51 54 55 56 58 60 63 65 67 69 71 74 77 78 83 83 82 83 86 88 89 89
40 42 44 46 46 41 46 44 44 46 46 49 49 47 51 52 48 49 49 49 53 55 57 59 61 63 65 67 69 72 74 76 79 77 80 79 80 84 86 86 86 88 90
36 41 41 41 42 45 47 52 52 52 52 52 48 51 51 51 52 54 54 53 54 58 61 63 64 68 71 72 73 76 77 76 77 78 80 83 85 88 89 90 90 89 86

GFSMW_500_spd_063.txt.gz
Wind_Speed
13 13 14 17 18 5 13 14 15 17 15 19 18 19 19 18 21 21 18 21 23 24 25 26 25 27 27 29 25 21 18 22 24 26 28 31 28 27 29 30 33 33 32
12 12 11 12 14 6 9 15 19 20 16 24 22 22 23 23 20 19 20 25 24 28 30 31 30 28 27 25 21 19 18 16 20 24 22 21 24 28 30 33 34 37 38
10 9 9 10 8 9 8 3 6 11 18 23 24 23 25 21 23 23 25 27 24 29 32 32 31 27 22 20 18 18 20 22 19 22 23 26 28 31 33 34 37 39 40
8 6 4 5 4 3 3 4 4 3 4 18 24 22 23 28 29 29 28 31 28 30 33 37 27 22 24 21 20 24 25 24 21 21 24 26 29 32 35 37 38 38 44
7 4 5 2 4 4 3 2 1 1 2 6 7 20 22 20 16 19 29 32 32 28 30 23 22 24 25 28 27 26 24 24 25 25 28 30 31 32 34 35 40 41 39
7 6 4 5 4 5 5 4 2 1 1 2 3 6 9 10 10 10 7 8 12 13 15 18 21 25 26 31 31 28 27 29 29 29 29 31 33 35 35 38 39 42 40
12 10 7 6 5 6 7 6 5 5 3 2 3 4 5 6 8 10 12 12 14 15 17 20 25 27 29 30 30 29 31 31 26 24 28 32 37 39 41 43 37 37 38
10 11 9 9 8 8 8 8 8 6 6 6 5 6 7 8 9 10 12 13 13 16 19 20 23 26 26 28 28 27 26 26 23 31 31 33 36 40 43 40 38 38 38
13 14 13 12 11 13 13 11 9 9 9 8 8 8 8 9 11 12 14 15 17 19 18 20 26 27 27 27 29 27 30 30 28 31 33 32 32 37 40 37 39 40 40
17 18 16 16 17 17 17 15 14 13 11 11 12 12 12 12 12 12 15 19 21 22 23 25 27 29 30 31 31 32 32 33 33 32 36 39 39 39 40 41 41 43 43
23 20 21 18 20 16 16 14 14 14 14 15 15 15 15 14 15 15 18 20 23 25 25 27 29 29 32 35 36 35 34 37 36 39 41 43 42 41 44 42 43 45 44
24 22 21 20 18 14 13 15 17 18 18 18 19 17 19 20 19 21 23 23 30 30 30 31 34 31 35 38 40 40 38 43 42 46 47 45 47 45 45 45 47 47 46
20 21 20 21 17 17 19 19 20 23 23 21 20 22 22 22 21 22 20 19 20 21 26 28 25 30 36 38 40 48 40 36 35 36 43 41 42 45 46 49 49 50 50
25 22 22 25 25 24 23 26 24 23 24 25 23 23 26 26 25 26 26 25 25 28 28 29 28 27 31 33 31 32 33 35 36 42 44 45 45 47 49 50 51 51 53
33 30 29 32 32 30 26 28 31 27 27 26 26 23 23 27 28 27 27 29 28 29 31 31 32 30 32 33 36 32 35 39 42 43 45 46 47 48 49 52 54 56 56
32 33 35 32 33 33 30 30 33 34 32 27 25 28 26 27 27 28 31 31 32 32 33 33 34 37 36 36 38 39 39 39 40 43 46 47 48 50 52 55 57 58 59
29 30 34 35 35 33 32 32 30 33 35 34 27 28 30 30 32 32 31 31 32 33 34 37 39 40 41 41 40 42 42 43 44 45 47 49 52 54 56 58 60 60 59
35 31 29 29 31 33 30 29 28 29 29 31 33 34 36 35 35 34 33 32 32 33 33 33 35 38 40 42 43 42 45 46 48 49 53 55 57 58 60 60 60 60 62
32 33 29 27 28 28 30 35 28 28 30 28 27 28 36 39 36 37 36 34 33 33 33 34 35 36 39 42 44 45 47 49 50 53 58 61 63 64 63 62 63 64 66
33 33 37 30 29 27 30 33 30 29 31 32 33 34 35 38 39 39 38 37 37 36 37 37 38 39 41 42 44 48 49 51 53 55 63 63 66 64 65 66 67 68 70
40 41 35 30 32 35 35 39 39 35 36 36 37 40 36 35 38 38 42 40 41 41 41 40 40 41 43 44 47 49 51 53 55 56 65 70 65 66 68 69 70 73 74
40 38 38 42 40 40 43 41 45 42 43 42 43 42 41 40 41 39 41 42 43 42 43 44 46 47 48 49 50 51 52 54 58 65 64 65 67 68 71 71 70 69 81
40 44 43 44 44 43 45 41 40 44 46 45 44 45 43 47 46 44 41 39 39 39 41 43 44 47 50 52 54 56 58 61 63 65 66 67 69 73 72 74 78 81 78
45 45 45 42 46 48 49 48 48 46 48 47 49 50 50 48 45 44 43 45 47 50 45 47 49 46 50 55 58 60 61 63 65 66 68 68 73 76 76 79 79 79 82
46 46 48 46 45 49 45 43 41 41 44 49 52 50 51 48 48 48 49 49 49 45 47 47 52 53 55 60 59 62 63 65 67 69 72 74 75 78 80 85 87 86 87
38 38 38 39 44 46 41 35 46 44 50 46 51 48 51 50 56 55 52 51 49 51 49 52 54 56 61 61 60 56 62 67 67 68 68 70 73 76 78 79 84 88 92

GFSMW_500_spd_066.txt.gz
Wind_Speed
15 14 14 14 16 8 9 15 13 16 12 20 19 21 18 22 22 22 25 28 27 25 21 24 26 26 25 28 29 30 29 25 24 25 27 29 25 25 27 31 35 35 26
12 11 12 11 11 10 4 13 15 13 15 17 20 22 21 26 14 25 19 24 25 23 20 24 24 25 27 29 28 29 30 25 20 22 24 22 24 27 30 32 31 31 32
9 8 9 9 7 8 5 7 13 17 21 19 24 21 22 23 25 20 21 22 23 27 23 27 29 30 31 32 28 27 26 21 18 19 16 22 23 23 24 26 29 31 34
10 7 7 7 5 4 3 2 7 10 14 19 24 26 24 26 27 26 23 23 26 30 24 26 30 32 34 32 29 25 22 18 20 22 20 23 25 27 28 30 32 33 36
11 8 6 5 6 4 4 2 2 4 4 2 20 28 28 25 26 24 27 29 28 26 27 28 32 36 36 27 21 21 24 24 22 26 24 26 25 26 29 30 32 37 35
14 13 8 4 4 5 5 4 2 4 2 2 5 8 19 24 27 26 27 29 34 34 32 31 30 32 25 24 25 22 25 22 26 29 28 28 28 29 31 32 34 36 38
13 11 11 8 5 4 4 4 5 4 4 2 3 6 6 9 13 13 8 7 13 21 21 22 22 24 25 24 26 25 30 30 30 27 30 32 30 31 34 39 51 42 42
12 10 9 9 8 7 6 5 5 6 5 5 5 5 8 10 10 10 10 12 12 13 15 17 21 21 21 22 24 25 29 30 32 34 37 34 33 35 40 44 43 38 41
15 13 11 10 9 11 12 10 9 8 8 8 8 8 10 9 11 10 12 12 13 13 14 15 16 18 20 21 23 27 29 33 31 34 36 36 36 39 39 40 41 46 45
19 17 14 14 12 14 15 15 13 13 12 12 13 13 12 11 11 12 13 14 16 18 17 18 19 21 22 24 27 29 31 35 36 38 41 41 39 41 40 44 46 45 46
22 21 19 17 18 15 14 15 13 13 12 12 13 13 14 13 14 13 15 15 15 19 20 23 24 24 26 29 32 34 37 40 42 43 45 45 41 39 44 47 56 45 49
23 25 25 21 19 19 16 13 11 13 15 16 15 15 15 13 14 19 20 21 22 19 22 27 30 31 29 31 34 37 40 44 44 49 50 49 51 49 46 49 47 49 46
26 25 25 26 22 20 20 18 16 18 19 18 21 22 20 20 19 20 22 22 21 21 21 24 22 26 30 30 31 33 33 38 42 51 53 49 50 42 37 50 51 47 46
29 30 29 28 26 24 24 24 22 22 23 24 25 23 25 26 25 25 25 25 26 27 27 27 27 29 30 33 34 33 36 39 38 37 43 46 42 42 47 48 52 52 52
32 31 33 32 30 30 31 32 30 31 29 27 25 26 28 28 27 26 26 28 29 30 32 32 31 35 36 34 40 38 38 38 36 38 38 43 44 48 50 52 54 56 56
36 35 35 34 33 35 35 38 36 33 33 32 31 32 30 32 32 31 28 27 29 32 36 34 35 37 37 37 41 45 44 45 43 41 43 45 45 45 49 54 55 55 57
38 39 41 40 39 39 38 38 37 37 37 38 35 33 33 30 31 33 32 31 32 35 36 37 37 37 37 38 40 44 46 46 45 46 46 46 48 50 52 55 57 59 62
39 39 39 40 39 40 42 40 41 40 37 39 39 37 30 32 37 39 39 39 38 35 36 38 39 39 37 36 38 41 44 44 45 46 48 49 50 54 56 57 59 63 68
29 35 35 38 39 41 41 43 45 43 38 38 38 36 37 37 38 36 36 41 43 43 42 40 39 41 42 41 41 42 44 45 48 49 50 53 56 57 58 54 64 72 60
34 34 34 35 35 36 37 41 41 44 43 41 40 39 39 39 40 39 38 43 42 45 46 46 45 44 45 45 45 46 47 48 52 52 55 57 58 59 57 61 58 63 70
40 38 32 37 37 36 41 38 34 35 39 43 42 42 44 46 47 46 42 38 38 40 43 47 49 48 48 49 49 51 52 53 54 56 58 59 59 60 63 61 72 68 78
40 42 40 38 38 42 43 41 39 36 41 45 47 49 48 49 51 53 53 49 47 45 46 46 45 49 50 51 52 52 53 54 55 57 58 60 61 67 67 68 74 77 75
41 43 42 41 42 44 42 43 45 45 47 46 52 50 54 55 56 56 58 55 55 49 51 44 42 44 47 47 51 54 55 57 54 58 57 55 56 64 71 73 73 74 78
50 48 44 45 45 46 48 47 48 50 50 50 50 52 52 55 57 59 58 57 58 58 47 48 48 51 54 55 53 52 51 48 57 65 54 60 69 73 71 74 79 82 82
50 51 47 44 50 50 51 52 52 52 54 52 50 51 52 57 58 59 61 60 61 59 53 53 54 51 51 51 50 46 53 56 59 64 68 74 75 72 74 79 78 75 76
39 48 54 48 46 51 53 57 60 58 53 51 49 49 49 52 54 55 59 65 60 57 56 58 55 55 57 57 57 59 62 63 64 68 73 74 75 76 77 76 78 79 83

GFSMW_500_spd_069.txt.gz
Wind_Speed
15 16 14 11 11 13 11 10 12 12 11 17 12 17 19 23 31 32 30 30 27 29 26 27 27 33 53 43 36 35 31 33 33 27 27 26 28 29 29 28 30 28 26
10 13 13 10 9 9 6 5 11 9 12 13 16 18 20 16 18 25 30 29 29 27 22 16 15 26 31 31 31 29 28 28 27 26 20 19 24 28 26 25 26 26 27
9 11 11 8 6 8 7 2 6 10 13 14 13 14 15 15 17 17 16 18 21 21 26 18 20 23 24 25 26 27 26 18 19 20 14 12 17 19 20 23 26 29 28
5 10 11 8 5 4 5 5 3 3 11 16 18 17 21 22 22 24 20 21 17 19 23 24 23 26 26 27 28 28 26 18 19 14 18 16 17 21 20 22 23 25 26
4 5 9 11 6 2 2 3 2 2 3 4 12 21 25 25 23 22 23 23 20 21 25 25 29 24 27 28 29 24 19 21 21 21 22 21 20 23 24 25 24 27 29
8 7 7 7 7 5 2 2 3 1 2 5 8 14 25 27 25 25 22 25 27 26 27 26 25 28 28 27 26 23 21 23 24 23 23 22 23 22 25 29 30 30 31
8 11 9 6 6 3 2 0 2 4 4 3 3 3 7 20 23 26 26 20 18 24 33 31 31 28 33 28 29 26 25 26 25 22 23 25 27 29 33 32 32 35 38
16 14 12 7 6 5 2 2 2 2 4 6 6 5 5 5 8 10 13 13 10 8 11 20 24 23 25 24 25 25 25 29 26 29 26 30 32 34 36 38 40 41 41
17 15 12 10 8 6 6 7 7 5 4 6 7 7 8 9 11 12 13 14 13 13 12 12 13 17 19 21 22 22 25 27 25 27 29 33 34 36 36 37 40 45 49
17 18 16 14 12 11 8 10 11 11 11 9 8 9 11 10 11 13 14 15 14 14 14 14 16 19 19 20 21 21 24 25 26 28 31 33 36 38 41 44 47 47 52
21 21 21 19 16 14 14 13 13 11 9 10 8 8 10 11 13 16 17 16 16 16 17 19 21 22 23 24 26 25 26 29 31 33 36 39 42 44 47 48 50 52 54
26 24 23 23 22 22 19 19 17 15 14 13 13 11 10 11 14 17 20 20 19 21 24 22 25 24 25 28 28 28 30 33 35 36 39 43 45 46 46 55 59 59 53
29 28 26 25 26 25 23 21 20 19 17 16 18 18 17 17 18 19 19 21 21 21 21 20 18 23 25 27 29 32 33 34 38 36 38 38 42 44 49 58 62 47 42
33 32 30 29 29 27 26 24 22 25 24 22 21 22 24 24 26 25 25 25 25 25 24 24 24 26 27 29 29 30 32 33 35 37 38 39 41 42 42 41 46 45 44
34 36 35 34 32 32 30 28 27 29 30 29 28 25 25 27 26 28 29 30 30 29 30 30 29 30 32 31 31 34 37 39 39 44 46 43 44 47 45 44 46 47 52
40 44 41 38 35 35 34 34 32 32 35 34 31 32 31 31 32 33 32 33 34 33 32 32 33 33 34 35 36 39 42 44 45 46 46 47 52 49 49 49 49 47 57
42 42 43 42 39 38 39 38 37 38 37 36 34 33 34 34 33 34 36 35 34 35 34 34 36 38 38 37 38 40 44 46 47 46 46 48 48 47 47 53 51 53 56
29 45 47 45 45 44 44 43 43 43 42 42 41 41 39 36 36 34 34 35 35 36 38 40 41 42 42 43 42 42 46 48 47 47 46 48 51 50 50 51 55 58 60
23 29 47 46 46 45 44 44 45 46 47 46 45 47 44 44 42 40 36 37 38 39 38 39 40 43 46 48 48 48 49 50 51 52 52 52 53 55 56 58 59 59 58
27 27 29 33 50 49 44 44 46 45 49 49 51 51 46 47 44 44 45 45 40 39 38 40 42 44 44 47 50 54 55 56 55 56 57 58 59 60 60 61 62 62 63
36 35 33 34 36 36 41 44 44 46 47 51 52 53 55 53 49 48 49 50 51 49 50 47 49 50 47 48 49 51 56 58 59 59 60 61 60 62 63 65 64 66 69
42 40 39 39 40 39 41 42 45 46 49 45 48 50 53 54 53 57 56 53 55 57 59 64 66 60 60 57 53 53 52 54 57 59 60 62 64 65 67 68 65 73 72
47 48 48 47 44 43 43 44 46 48 49 48 49 50 53 52 55 60 58 60 62 61 65 68 65 63 66 59 63 59 52 54 57 59 63 65 67 68 67 68 70 71 68
38 38 38 41 49 50 46 46 49 50 50 48 50 53 55 58 60 64 66 70 69 66 69 72 67 69 71 69 69 63 54 56 58 60 62 61 59 72 58 57 62 64 71
32 33 36 39 39 43 50 51 51 54 56 55 56 56 59 59 62 63 64 67 66 67 67 69 71 74 75 71 75 70 65 62 60 61 63 62 63 67 72 75 76 78 81
35 36 37 40 40 42 45 49 52 53 51 57 59 59 61 61 63 64 65 66 65 67 69 72 72 73 71 75 77 71 67 67 65 71 71 74 74 75 74 77 77 80 82

GFSMW_500_spd_072.txt.gz
Wind_Speed
16 14 12 11 14 14 18 15 8 10 13 11 6 10 14 25 21 24 28 28 29 26 23 28 29 29 32 31 49 48 41 40 40 36 32 33 29 26 24 24 24 24 24
14 11 10 10 9 11 14 13 8 8 8 10 10 7 8 15 21 23 27 29 26 25 24 22 27 25 28 25 42 47 42 34 34 31 27 24 22 20 18 18 20 21 20
11 9 7 8 7 7 10 12 8 9 6 6 5 8 8 10 11 15 25 26 26 26 25 23 18 18 17 17 20 29 30 29 25 24 19 16 11 10 10 11 12 15 17
10 8 4 5 7 7 6 7 7 5 5 10 11 10 11 13 14 13 12 15 16 19 21 21 22 15 13 14 17 22 22 23 22 19 14 13 10 11 7 12 14 15 18
11 8 5 2 5 5 6 6 4 3 1 3 6 10 14 15 17 15 14 18 19 15 15 19 18 20 17 19 21 23 21 21 25 24 21 13 13 15 19 21 23 22 22
14 12 8 5 4 3 4 5 5 3 3 3 4 6 9 16 18 18 17 18 18 21 17 15 18 22 20 22 24 24 25 31 22 23 25 23 22 20 21 21 22 23 24
16 16 12 8 6 3 3 3 4 5 4 4 3 6 9 4 19 22 21 19 19 18 20 26 29 24 24 23 27 28 32 29 26 25 26 25 24 24 23 26 26 30 31
18 17 12 9 7 7 5 4 4 3 3 4 5 4 4 4 2 7 9 13 14 15 12 13 23 28 28 27 29 30 27 27 26 27 26 27 24 23 25 29 32 34 36
20 19 14 10 8 8 7 6 7 8 7 5 4 5 5 5 6 8 8 7 10 12 12 10 7 10 15 20 23 20 19 22 25 26 26 27 29 31 32 32 33 37 36
21 18 16 13 10 10 11 9 9 10 12 10 8 7 7 8 7 10 13 14 17 17 16 14 13 13 14 16 17 17 16 20 23 23 27 28 29 32 33 32 36 39 43
22 21 18 16 15 14 13 15 12 9 10 10 9 9 9 9 10 12 13 14 15 15 16 16 17 17 18 20 20 19 21 22 24 25 27 29 31 34 36 39 38 42 46
23 24 22 20 19 19 18 17 18 19 16 13 12 11 10 11 12 14 14 15 17 14 16 18 18 20 22 24 24 24 25 26 28 29 31 32 34 38 39 43 44 49 49
24 25 25 25 24 23 22 21 19 18 16 18 16 14 14 14 16 17 16 17 17 18 19 19 21 21 21 23 24 26 29 32 34 35 36 36 40 41 42 45 45 46 47
24 27 30 29 28 26 24 23 22 22 19 19 20 21 21 21 23 22 21 21 23 22 23 24 24 23 24 23 24 26 28 30 33 34 37 38 38 38 39 47 47 47 50
29 27 31 34 32 31 28 27 27 25 24 23 23 25 26 26 22 21 23 25 26 25 26 26 26 28 28 28 30 32 33 34 36 38 40 41 43 44 47 46 49 47 49
37 37 37 35 37 37 35 34 32 31 30 27 26 28 29 28 28 27 29 29 29 29 31 32 32 31 30 29 31 34 36 38 40 41 42 44 46 46 49 51 54 56 50
38 39 41 38 40 40 38 37 36 37 34 32 31 31 32 31 29 31 31 29 29 32 31 32 35 35 36 36 37 37 40 42 43 44 44 45 46 46 49 51 55 56 56
33 35 39 34 43 43 41 42 41 41 40 37 37 37 37 37 38 37 35 35 34 34 33 30 31 33 34 37 38 40 44 46 47 48 48 48 49 49 51 53 54 56 57
27 27 30 33 32 48 49 47 44 44 47 46 44 44 43 43 44 43 45 48 40 41 36 37 39 39 38 39 39 41 44 45 48 50 53 54 55 55 54 56 58 59 61
27 25 24 27 28 33 51 50 50 53 53 51 50 49 47 47 49 48 48 48 41 43 48 45 42 41 41 43 46 49 49 46 48 48 51 54 55 57 62 63 63 64 65
30 28 30 30 30 32 35 36 35 45 53 51 51 53 50 49 51 54 51 52 55 56 52 53 49 47 49 53 55 57 60 60 60 60 58 58 59 61 60 62 65 68 68
31 33 35 34 34 34 36 38 40 43 44 45 45 56 52 52 51 47 58 58 54 54 56 54 57 61 61 59 61 61 63 64 65 73 65 62 64 71 68 64 65 66 67
39 40 42 44 44 45 46 46 45 47 49 51 51 54 56 57 60 57 52 52 55 59 59 58 62 64 61 66 69 65 61 67 67 58 68 71 74 76 78 68 66 68 67
32 30 32 34 38 39 40 42 48 52 53 54 54 55 56 58 61 62 61 58 61 62 62 64 70 73 70 73 77 78 71 59 72 68 70 75 75 75 77 69 67 67 69
24 25 27 28 32 35 37 39 41 44 49 55 58 59 58 59 60 61 62 62 63 66 69 68 71 71 73 69 68 72 64 66 72 74 74 75 79 82 82 80 72 74 77
30 31 32 32 33 33 36 39 41 44 47 48 51 58 61 60 61 60 62 64 70 76 71 68 69 69 79 59 59 76 77 76 76 74 76 76 78 73 71 74 74 62 64

GFSMW_500_spd_075.txt.gz
Wind_Speed
10 11 11 12 11 10 12 14 12 6 9 6 3 4 15 27 30 32 37 30 31 23 24 25 20 16 17 23 22 28 39 38 44 42 37 35 35 37 30 26 25 23 21
6 12 10 8 7 8 11 12 8 6 6 5 6 5 5 12 23 26 30 27 29 28 24 19 16 17 18 24 26 25 28 29 35 45 40 35 34 27 24 22 21 23 19
4 11 10 6 5 6 9 10 9 4 5 5 6 4 3 9 10 22 18 21 23 20 21 21 21 21 21 24 23 25 27 28 29 36 31 29 25 24 18 18 12 10 12
3 10 10 6 2 3 7 8 9 7 3 3 5 3 3 7 6 8 11 14 14 19 23 22 23 21 18 21 22 22 23 22 23 27 22 22 21 17 15 14 13 9 10
6 11 11 8 3 2 4 7 6 5 4 2 3 4 7 8 9 9 9 11 10 10 13 15 15 19 18 16 17 17 15 16 20 22 21 20 22 22 21 18 18 17 17
10 15 13 8 6 5 4 5 5 3 1 1 1 2 3 8 12 13 14 14 13 15 16 12 12 15 19 18 19 20 20 21 24 24 22 24 27 23 22 21 22 20 19
10 18 14 12 10 7 6 5 5 4 3 2 2 1 1 1 14 16 17 16 15 14 18 19 18 21 22 23 23 22 22 24 25 27 26 27 29 31 28 27 25 23 25
15 19 15 12 13 10 8 6 5 4 4 3 2 3 3 4 5 15 17 17 17 16 15 17 21 24 26 29 26 24 28 27 31 28 31 32 29 30 29 28 28 28 28
16 21 18 13 15 11 11 9 7 7 7 6 5 3 1 2 2 5 5 5 6 9 11 12 13 12 15 23 27 28 28 29 29 35 34 31 29 31 30 28 30 33 36
15 22 19 17 16 14 12 12 10 8 9 10 9 8 6 4 4 5 7 8 8 10 11 13 15 14 11 12 15 18 21 21 22 25 30 30 31 31 32 33 37 39 37
16 17 19 18 18 16 16 15 15 12 10 7 8 7 9 9 9 7 8 9 11 12 13 13 15 15 15 15 16 18 20 21 24 25 28 30 31 32 35 38 39 37 38
16 17 20 22 20 20 20 18 16 15 17 14 12 10 9 9 9 8 9 9 10 12 13 13 16 17 16 19 19 21 22 22 23 25 28 29 34 34 36 37 37 39 42
25 22 22 24 25 23 21 21 21 18 15 15 14 14 14 13 12 12 13 13 12 13 13 16 18 20 22 22 22 23 25 25 26 29 30 30 33 33 35 36 38 40 43
23 22 25 28 29 27 25 24 22 22 21 18 15 17 19 20 19 17 18 18 18 18 20 20 21 22 22 21 23 24 24 27 28 31 31 32 35 36 38 40 41 41 44
27 24 23 24 25 29 30 30 27 25 23 21 20 19 22 23 23 22 21 19 18 21 23 23 23 25 25 25 26 27 28 30 33 34 35 36 37 40 42 45 44 47 50
29 32 30 30 30 27 28 27 28 29 28 27 27 26 25 24 25 26 26 26 26 26 26 24 26 28 30 29 30 32 32 34 35 35 36 37 39 41 44 46 49 51 52
33 35 35 35 33 32 32 31 30 30 29 28 32 33 34 32 31 29 29 29 29 29 28 26 29 31 31 32 33 35 38 39 40 41 42 42 42 43 44 45 48 50 52
35 38 40 39 42 41 40 38 34 31 33 33 36 36 36 36 37 37 35 35 35 34 34 33 37 34 32 33 34 36 39 38 38 41 42 43 46 48 49 49 50 52 53
40 39 37 39 39 43 42 41 45 41 39 38 39 41 40 40 42 40 39 40 42 41 39 38 43 45 38 38 36 38 41 44 45 45 44 44 44 45 44 47 50 51 52
30 25 26 29 29 25 29 35 31 36 44 46 45 46 49 49 49 49 48 46 46 45 44 44 46 47 44 46 42 45 47 49 51 51 51 53 55 57 58 63 64 63 61
27 24 26 26 27 29 31 32 32 32 30 43 47 43 42 45 43 47 48 49 47 48 51 52 52 50 52 58 58 55 55 55 56 57 58 60 57 58 63 65 71 73 71
26 26 28 30 31 31 32 33 35 37 38 39 41 44 43 44 45 44 46 51 55 56 55 50 55 59 57 57 55 56 60 58 63 67 67 70 67 68 72 67 68 70 59
33 35 35 36 36 37 40 42 43 44 44 45 46 47 49 50 49 51 54 54 53 56 59 61 62 57 60 60 60 61 60 61 65 68 71 74 72 86 71 75 64 68 66
37 38 40 43 45 46 44 43 42 43 46 49 52 56 58 58 59 59 59 63 64 63 63 65 65 65 66 64 62 60 73 71 68 72 72 78 76 87 67 71 56 76 80
43 41 40 36 36 36 37 37 38 39 41 44 46 48 51 54 59 62 63 64 67 68 68 67 68 67 71 71 72 78 70 72 66 67 70 69 75 71 68 73 73 77 77
35 33 33 34 35 37 38 39 40 40 42 43 45 48 49 51 53 55 59 62 67 72 72 70 68 68 71 71 71 80 86 83 73 75 65 65 62 68 80 81 75 73 75

GFSMW_500_spd_078.txt.gz
Wind_Speed
12 13 16 12 12 14 13 13 11 4 9 12 9 7 11 21 27 27 28 32 30 36 23 21 32 27 25 27 29 25 22 31 34 35 35 37 40 37 35 31 32 33 31
7 10 12 12 12 11 9 9 11 6 6 11 10 8 8 18 23 31 32 34 29 30 29 28 26 28 19 22 24 21 18 22 29 37 39 37 40 39 35 34 32 31 28
6 11 10 12 12 10 7 7 9 8 7 6 6 9 6 10 20 29 32 31 32 32 29 28 22 21 23 25 23 22 20 22 23 29 30 29 35 38 34 33 30 28 27
8 11 10 11 11 9 8 5 6 8 3 5 5 7 5 6 12 17 25 26 27 30 31 27 25 24 26 25 23 22 21 23 21 26 27 30 25 30 28 28 27 26 23
9 14 10 12 11 9 8 5 4 4 2 1 6 7 7 9 10 11 20 29 23 26 26 26 27 24 24 23 24 17 17 18 19 24 24 20 23 25 26 25 28 26 24
13 13 15 14 12 9 8 7 7 4 2 3 4 5 6 9 12 17 18 18 19 20 20 21 20 18 18 20 18 16 16 19 22 25 22 22 25 25 25 29 30 25 24
10 15 15 17 12 10 8 7 8 6 5 3 4 3 2 3 15 19 18 18 18 18 19 20 17 17 19 20 18 21 25 26 27 27 26 27 27 26 29 30 35 30 29
8 5 13 20 16 12 9 8 8 7 3 2 2 2 2 1 3 17 19 18 19 18 17 21 22 18 18 21 25 28 32 32 31 27 26 29 29 28 31 33 36 36 33
8 7 19 20 17 14 12 11 10 9 6 4 3 3 2 1 4 7 11 13 13 15 18 16 17 16 16 20 25 31 35 30 30 29 29 34 32 31 36 37 39 40 37
15 16 23 22 19 16 15 14 14 11 8 8 7 6 5 4 3 6 8 9 7 8 10 12 14 15 15 15 12 11 23 28 30 31 32 35 38 37 36 37 37 39 40
15 14 25 26 24 20 18 17 16 15 11 9 8 8 6 6 6 7 8 9 10 11 12 13 14 14 16 16 14 13 17 20 23 26 27 28 32 35 38 36 37 37 41
18 16 19 26 24 23 21 21 18 18 15 13 11 10 10 9 8 9 10 9 10 11 10 12 13 14 16 17 15 16 18 21 23 25 28 28 32 33 36 39 41 42 44
19 20 22 24 25 25 25 24 22 21 18 15 12 12 14 13 12 12 11 11 11 12 14 15 16 18 18 18 19 19 20 22 25 28 29 29 33 32 34 37 38 40 42
22 19 19 22 26 29 30 28 26 25 24 21 18 16 17 18 17 16 16 16 17 19 20 20 21 22 23 22 23 24 25 25 25 27 29 32 33 33 35 37 40 42 46
29 20 18 16 18 22 26 30 29 28 26 26 24 24 23 20 20 22 23 23 20 19 22 22 22 25 27 27 29 30 31 31 32 34 34 35 37 37 37 39 39 42 46
30 26 24 23 21 21 21 22 26 26 26 23 25 27 28 27 26 25 25 26 26 25 26 26 28 28 26 28 30 32 34 37 37 36 37 37 38 37 38 40 42 45 47
35 31 30 29 28 26 26 26 27 28 28 27 28 30 31 32 32 31 30 30 30 30 30 31 32 29 28 28 30 34 37 37 39 41 42 43 43 44 45 46 49 50 50
39 34 34 33 31 29 30 30 31 32 34 33 33 34 33 34 35 35 35 35 37 36 36 35 36 37 35 36 37 41 41 41 39 39 41 45 44 44 44 46 45 45 47
39 38 37 37 36 38 41 39 39 39 39 37 36 37 38 38 39 40 41 41 38 38 39 42 44 42 40 44 45 43 47 48 47 46 46 46 48 49 50 51 51 52 52
37 37 38 40 39 39 40 42 44 45 43 43 42 41 46 45 44 43 44 44 47 46 44 48 49 50 50 49 49 49 52 53 53 52 54 54 56 57 57 58 58 60 62
32 32 36 36 33 35 38 39 40 40 38 36 41 44 44 48 47 47 51 51 52 48 48 50 53 54 54 53 52 54 56 59 60 60 61 63 65 62 62 63 65 70 71
37 36 37 36 35 36 34 32 30 32 33 35 38 40 39 40 44 45 45 46 45 45 49 51 52 55 55 57 60 59 55 57 67 66 67 64 63 62 64 65 68 73 71
29 30 31 33 35 35 35 37 37 38 39 41 43 45 47 48 49 50 50 50 51 53 54 55 57 59 60 58 62 61 65 67 67 70 74 64 71 71 77 72 73 73 66
36 35 34 37 41 38 38 40 41 42 45 48 49 50 52 53 55 57 59 62 64 66 67 66 66 67 68 67 67 62 56 61 68 66 76 67 74 79 74 71 72 73 74
39 39 38 40 47 47 45 45 48 51 52 52 51 49 49 49 50 51 53 55 56 58 60 63 66 69 72 74 75 75 76 77 74 73 76 75 75 74 73 75 76 78 88
36 38 40 43 47 49 49 47 47 47 46 46 47 48 49 50 52 53 54 56 57 58 60 61 63 65 66 69 72 74 76 78 81 81 78 76 71 73 78 84 73 67 67

GFSMW_500_spd_081.txt.gz
Wind_Speed
33 24 21 23 16 18 19 18 15 16 15 10 13 15 15 18 24 20 19 38 47 36 32 31 30 25 23 20 19 19 26 24 24 27 31 36 33 40 40 35 37 36 31
31 19 22 18 15 17 19 14 13 11 12 12 14 19 17 16 28 24 19 40 41 36 28 27 29 26 29 27 24 27 29 24 23 25 28 34 34 38 40 40 43 37 34
26 18 23 15 17 16 17 13 12 8 9 11 12 11 9 14 24 28 22 28 42 35 32 27 25 25 27 29 31 25 24 23 20 21 23 31 31 36 40 37 41 41 38
22 18 21 18 17 15 15 12 11 6 6 7 8 7 6 9 24 33 30 26 27 32 34 32 27 26 27 26 28 26 23 24 21 21 24 28 29 37 35 37 38 39 35
18 19 19 18 17 15 12 12 10 6 3 4 7 9 7 9 14 28 33 30 31 30 32 32 30 31 29 25 24 24 24 25 26 24 27 30 28 36 38 33 33 33 35
19 23 22 21 17 16 12 10 10 8 5 4 5 5 7 9 10 19 25 34 31 30 22 27 30 31 28 25 26 24 25 26 24 23 25 26 30 30 31 30 29 33 33
24 27 22 20 18 16 12 10 9 6 6 6 6 6 7 6 13 18 23 27 30 31 29 28 27 29 26 25 26 26 25 26 22 24 24 25 29 31 30 27 29 31 31
20 27 22 17 18 15 13 12 8 5 3 4 5 6 7 7 8 18 20 21 22 20 20 20 23 26 24 24 25 24 27 26 25 25 27 30 34 33 32 29 31 32 35
24 19 17 15 18 16 15 15 11 8 6 5 5 5 4 4 5 13 21 21 20 19 18 17 22 23 20 21 21 25 26 29 29 29 33 35 33 32 33 35 34 35 36
23 21 18 14 15 17 15 16 14 12 9 7 9 8 6 4 2 3 16 18 19 18 20 22 22 23 26 22 20 18 20 29 34 34 35 34 34 33 35 39 38 38 37
23 18 15 18 18 22 17 16 15 14 12 10 9 8 8 7 5 6 8 11 12 12 12 14 18 20 20 21 21 18 17 15 20 29 33 33 34 36 36 41 42 40 42
20 16 18 23 25 24 22 20 18 17 15 14 13 11 10 9 7 8 10 10 11 12 13 14 15 16 19 18 17 20 20 19 20 23 26 26 28 30 31 35 38 42 44
26 22 23 26 24 26 26 25 23 21 18 17 15 14 14 14 13 11 11 13 14 14 15 16 17 18 18 18 19 21 22 23 24 25 27 27 31 30 32 34 38 39 42
29 26 27 28 24 26 28 27 27 25 23 22 20 19 17 15 17 17 17 16 17 17 18 19 19 20 21 22 23 25 26 27 28 30 29 30 32 33 37 39 40 41 45
33 27 26 26 23 26 26 26 25 23 23 22 22 22 22 20 19 19 21 21 21 21 22 22 24 27 26 27 29 32 33 34 35 36 34 34 35 36 38 42 41 44 48
34 33 31 26 28 29 28 29 30 30 28 27 26 25 24 23 24 24 24 23 24 26 26 25 26 27 28 29 31 33 35 37 37 35 35 37 42 42 43 44 45 48 50
38 37 33 28 27 26 23 19 22 24 24 28 31 31 31 29 27 27 28 29 30 31 30 31 31 32 32 33 36 37 37 37 36 36 37 39 38 40 45 48 51 53 54
40 39 34 33 29 29 27 25 24 25 27 26 26 30 31 30 31 34 35 35 36 36 36 37 37 39 37 39 40 40 44 45 44 44 43 44 44 45 46 48 52 53 56
42 39 39 39 33 33 34 31 29 26 29 32 34 34 35 35 35 37 37 40 42 44 41 44 44 43 44 44 45 44 48 49 49 49 51 54 53 53 52 55 55 56 57
50 46 44 40 35 35 37 35 34 36 36 36 40 42 42 43 44 43 44 46 46 45 44 48 47 45 47 51 49 52 49 50 55 61 59 57 55 60 61 61 62 66 66
45 45 41 42 40 37 38 39 38 37 35 32 35 40 44 48 51 47 47 43 49 54 55 55 56 57 55 52 53 52 54 57 55 59 61 60 61 61 61 71 73 77 73
41 44 43 40 36 37 37 37 37 35 34 33 35 38 39 39 40 40 40 42 43 44 49 50 52 55 56 56 58 60 60 62 61 63 60 62 65 62 71 69 66 65 68
32 34 36 38 38 37 38 37 38 37 33 32 34 38 41 41 41 42 44 46 49 51 52 53 55 58 59 61 63 64 65 65 66 67 67 67 69 71 67 62 65 74 69
32 35 36 37 37 36 38 38 39 39 37 37 38 41 43 45 48 51 52 53 52 52 52 53 54 57 60 62 64 65 66 67 68 68 68 69 71 76 81 84 86 82 80
36 36 37 36 37 38 38 38 40 44 46 46 46 48 50 53 54 56 56 52 51 50 50 52 54 56 58 59 61 62 63 64 65 67 69 70 71 72 75 76 76 76 76
33 35 36 37 38 38 40 42 46 47 51 54 55 57 58 57 56 54 53 55 56 57 59 61 62 62 63 65 66 67 68 69 70 71 72 72 72 73 72 72 72 69 67

GFSMW_500_spd_084.txt.gz
Wind_Speed
36 34 32 38 39 33 24 20 19 17 20 21 18 17 19 18 19 19 25 25 23 31 47 46 36 29 32 28 26 25 23 22 22 24 26 31 33 34 36 37 37 35 33
31 28 32 37 36 30 22 19 15 17 17 19 16 18 19 22 20 18 22 21 26 38 48 41 33 30 28 26 25 26 21 23 26 25 28 28 28 31 36 40 42 43 38
26 24 30 38 29 25 20 19 14 15 14 17 15 15 14 15 17 20 21 14 34 46 50 39 30 30 23 23 24 24 21 21 28 30 29 28 26 31 36 37 40 41 44
27 29 37 27 28 23 19 17 14 12 12 13 12 11 10 11 10 20 21 14 37 46 45 37 31 30 27 22 23 27 27 27 26 30 29 29 26 30 28 31 35 35 35
30 29 33 26 27 23 20 15 12 11 11 10 10 8 8 11 10 17 26 22 32 40 36 28 28 29 26 26 26 25 28 29 26 28 29 27 27 29 27 30 29 36 37
32 36 31 31 26 23 20 13 11 9 10 9 8 7 7 11 10 8 28 27 23 27 20 25 31 29 27 26 26 28 29 27 27 30 31 29 30 28 32 28 32 38 39
35 34 33 31 26 23 21 14 12 9 9 9 8 6 7 7 7 11 11 25 26 29 30 24 25 27 31 29 30 31 30 29 29 29 31 31 30 32 32 30 33 38 36
32 28 24 29 25 23 21 15 14 9 6 6 6 4 5 6 6 8 11 26 27 26 25 22 27 30 32 33 28 27 26 26 27 29 29 29 28 27 28 29 32 35 34
27 27 24 29 24 23 22 18 15 11 7 6 6 4 3 4 5 5 14 16 19 23 25 27 27 24 23 24 23 22 21 24 25 26 30 31 28 28 27 28 32 35 36
27 23 22 28 26 26 24 18 17 14 12 9 7 7 6 5 4 2 14 19 17 17 15 15 17 18 20 21 20 19 22 24 25 30 34 32 31 31 32 32 36 36 38
23 25 28 26 24 25 22 18 20 18 16 12 9 8 9 9 7 4 7 15 18 20 19 20 21 22 21 22 23 22 22 19 20 22 25 30 32 35 39 40 38 39 40
27 34 30 28 23 23 23 21 20 19 18 17 14 11 8 9 9 9 9 12 13 14 14 13 12 12 16 17 19 22 24 22 21 21 20 20 27 32 34 36 38 40 40
30 28 28 28 26 23 23 24 21 21 19 19 17 12 10 13 13 12 12 14 15 15 16 16 16 16 17 18 21 23 24 24 25 26 24 23 28 27 30 32 35 37 39
30 28 29 26 26 22 23 25 25 23 22 19 18 16 14 11 10 13 14 14 15 17 18 18 18 19 20 22 24 26 26 26 28 29 29 30 31 31 33 36 37 38 41
35 34 31 25 22 20 21 23 22 22 22 21 20 18 17 16 15 14 16 18 19 19 19 20 22 24 25 28 30 31 31 32 33 33 34 34 35 35 36 39 38 41 44
39 37 33 27 23 23 24 27 26 26 26 25 23 21 21 21 21 21 20 20 20 22 23 24 24 24 25 27 29 30 31 32 32 32 34 37 39 38 39 40 42 44 48
43 39 36 33 28 29 30 27 30 27 27 27 26 27 27 26 25 27 26 25 26 27 28 29 30 30 32 32 32 33 35 36 36 34 35 36 37 39 41 41 44 46 47
43 38 39 37 37 33 31 29 28 23 21 21 20 21 22 22 27 30 29 29 29 31 33 33 36 37 38 37 39 39 41 42 41 41 42 44 44 46 47 49 50 50 54
42 43 41 39 40 35 27 25 26 24 21 21 21 22 24 25 27 29 32 32 34 36 37 36 39 42 43 43 43 46 47 48 47 48 50 52 50 51 49 54 58 57 57
57 49 44 43 39 37 37 35 35 33 28 27 28 29 31 33 36 36 37 38 39 42 43 44 46 48 45 46 49 51 50 55 53 52 59 55 59 58 55 58 61 66 67
28 46 50 43 41 43 39 39 38 35 35 35 32 34 35 37 36 39 42 45 49 52 50 53 51 49 47 51 54 55 59 57 60 62 63 61 62 60 61 57 65 60 68
35 35 34 42 45 45 41 40 40 39 43 40 36 37 37 37 36 35 36 38 40 43 45 43 45 46 47 48 51 54 56 58 60 61 63 65 66 67 68 69 70 70 75
38 39 43 39 38 42 44 45 44 42 40 37 37 37 37 36 35 35 36 37 39 39 42 45 47 49 52 54 56 57 58 58 58 59 59 61 64 67 69 70 71 72 70
43 50 48 45 42 40 37 37 37 38 39 38 37 37 38 38 39 40 40 41 43 45 48 50 52 53 55 56 55 56 56 57 58 60 61 63 64 66 67 69 70 71 73
38 41 38 37 36 37 40 42 42 40 38 38 37 38 41 45 47 49 50 50 51 52 54 55 54 53 52 53 56 57 60 62 64 65 66 67 69 70 72 74 75 77 79
28 32 35 38 37 38 36 37 38 38 38 39 40 43 45 46 48 51 52 53 52 53 54 56 57 58 60 62 64 66 67 67 69 71 74 76 78 80 81 83 83 84 84

GFSMW_500_spd_087.txt.gz
Wind_Speed
41 36 33 37 37 34 34 34 36 36 27 24 20 23 24 21 20 18 17 16 25 29 27 28 30 42 45 40 33 32 31 28 25 25 21 20 24 29 29 32 34 34 34
39 33 30 33 35 31 31 33 36 32 24 21 21 21 20 19 21 24 24 21 27 32 27 26 35 43 48 29 32 33 29 29 30 27 26 22 24 25 29 34 38 35 36
33 29 28 31 34 29 28 36 34 27 20 19 20 17 17 17 19 19 22 20 25 29 37 30 37 42 39 35 34 33 31 23 23 24 24 24 22 26 29 31 33 35 39
30 27 27 30 26 25 30 34 29 21 18 18 16 15 13 14 15 20 15 24 27 28 31 39 42 44 29 32 34 33 30 29 27 26 25 30 31 32 31 31 33 35 37
28 26 29 31 27 25 35 26 25 17 15 16 14 13 11 12 11 19 17 23 18 24 34 45 47 44 32 38 37 31 28 31 29 29 27 28 31 32 32 32 34 33 31
28 27 32 31 28 30 30 25 22 16 14 16 12 12 8 8 7 13 6 20 23 21 40 46 48 41 42 34 31 27 28 29 31 30 30 29 32 33 32 32 31 27 26
25 32 34 27 27 31 28 24 21 16 13 14 12 12 8 6 5 6 10 15 21 22 42 43 38 35 33 34 30 28 28 29 29 30 32 32 33 34 33 29 28 28 28
28 34 33 28 29 32 26 24 21 17 15 12 9 9 8 5 4 5 6 12 22 23 34 26 26 26 29 31 27 27 28 28 31 30 32 31 31 33 31 27 28 27 30
33 31 27 29 33 27 26 24 24 20 15 12 9 8 7 5 4 4 6 6 22 15 18 21 28 24 27 36 28 29 29 28 26 27 28 28 31 33 33 31 29 29 28
33 29 29 28 31 27 26 26 25 23 17 13 10 7 8 7 5 5 5 13 14 19 24 26 24 21 23 26 27 26 23 22 18 21 21 22 26 28 30 32 30 30 30
37 34 29 29 25 24 26 27 26 25 18 14 12 9 9 10 7 5 4 11 13 17 18 16 15 14 17 20 19 19 20 18 20 21 23 22 24 30 34 32 33 31 34
35 34 32 32 24 23 25 27 26 26 19 17 13 9 7 7 7 4 2 5 9 10 12 13 12 14 17 20 20 21 23 23 21 23 22 20 22 21 21 26 29 32 33
37 35 36 31 30 23 24 28 30 24 21 18 15 11 8 7 7 6 4 6 7 8 9 10 11 12 11 12 17 19 20 21 22 22 24 24 26 24 26 26 29 31 34
35 30 32 33 35 25 25 28 30 24 21 19 16 14 12 9 7 8 8 7 8 11 11 12 13 14 15 17 19 21 23 24 25 25 25 26 28 28 30 32 32 34 37
34 32 31 40 33 29 28 26 27 25 22 21 19 17 16 14 12 11 10 11 11 11 12 13 15 16 19 21 22 23 24 25 26 28 29 30 32 34 36 37 36 39 40
38 34 31 32 30 27 26 25 24 27 26 23 21 20 20 20 18 17 16 16 16 18 19 20 20 20 22 22 22 23 24 26 27 29 31 33 35 34 35 37 39 41 42
36 38 34 33 31 29 27 27 29 29 29 27 26 26 24 23 22 21 20 20 21 23 24 24 25 26 24 24 26 26 27 30 30 32 33 34 35 36 36 37 39 40 43
45 43 38 35 34 33 32 29 29 28 29 31 30 25 23 19 19 19 21 23 23 24 25 27 27 27 28 29 31 33 34 36 37 36 37 38 39 41 41 42 43 48 50
48 46 43 41 40 40 34 31 30 26 28 31 25 23 23 23 20 20 21 23 24 24 28 30 32 34 35 35 36 37 39 42 44 46 47 48 48 49 49 51 54 56 56
39 45 46 48 45 41 39 40 34 30 25 26 22 22 23 23 21 20 21 26 30 33 33 34 35 36 38 40 42 42 50 50 51 48 51 48 51 53 56 56 57 53 62
28 47 52 51 44 40 40 39 45 29 28 29 28 27 26 26 28 29 27 28 31 34 39 42 43 44 47 51 50 48 46 48 51 53 55 58 59 58 60 61 63 64 61
22 34 55 52 49 45 42 43 41 39 36 34 38 36 32 34 35 35 34 34 35 37 39 41 46 44 43 42 40 40 42 45 48 50 53 56 59 61 63 64 63 61 62
26 29 31 37 51 44 54 55 53 47 43 43 44 37 44 39 42 39 38 39 38 38 38 39 40 41 42 42 45 47 48 50 54 56 58 59 60 61 62 63 65 66 68
33 31 33 36 37 37 51 65 52 46 48 48 47 43 45 47 42 40 40 40 41 43 43 43 43 45 46 49 52 53 54 55 56 57 58 60 62 64 66 68 69 71 73
39 38 35 36 38 41 41 38 38 40 38 36 38 38 42 43 41 41 43 45 48 49 50 50 51 52 53 56 57 57 57 57 59 60 62 64 66 68 69 71 73 75 77
29 30 32 32 36 39 42 47 43 40 41 42 42 42 42 43 43 45 47 49 51 52 52 52 54 56 56 56 57 57 59 60 62 63 65 67 69 72 74 75 76 77 76